2016 Cux-Wetter.de -Die Nutzung der Wetterdaten nur mit ausdrcklicher Genehmigung
Wetterdaten: Dienstag, 26.09.2017
Datum Zeit Temp. A. Feuchte A. Luftdruck Regen Wind Richtung Richtung Sonnenschein Solar Taupunkt Windchill Windben
26.09.2017 00:00 14,6 C 91 % 1022,5 hPa 0,0 l/m 2,1 km/h (1 Bft) NO 55 0 min 0 W/m 13,1 C 14,6 C 6,4 km/h (2 Bft)
26.09.2017 00:03 14,6 C 91 % 1022,5 hPa 0,0 l/m 4,5 km/h (1 Bft) O 88 0 min 0 W/m 13,1 C 14,6 C 11,3 km/h (2 Bft)
26.09.2017 00:06 14,5 C 91 % 1022,4 hPa 0,0 l/m 3,8 km/h (1 Bft) N-NW 334 0 min 0 W/m 13,0 C 14,5 C 8,0 km/h (2 Bft)
26.09.2017 00:09 14,5 C 91 % 1022,4 hPa 0,0 l/m 3,0 km/h (1 Bft) O-SO 123 0 min 0 W/m 13,0 C 14,5 C 9,7 km/h (2 Bft)
26.09.2017 00:12 14,5 C 91 % 1022,5 hPa 0,0 l/m 5,1 km/h (1 Bft) NO 54 0 min 0 W/m 13,0 C 14,5 C 14,5 km/h (3 Bft)
26.09.2017 00:15 14,4 C 91 % 1022,4 hPa 0,0 l/m 3,3 km/h (1 Bft) O 84 0 min 0 W/m 12,9 C 14,4 C 8,0 km/h (2 Bft)
26.09.2017 00:18 14,4 C 91 % 1022,4 hPa 0,0 l/m 2,6 km/h (1 Bft) O-NO 78 0 min 0 W/m 12,9 C 14,4 C 6,4 km/h (2 Bft)
26.09.2017 00:21 14,4 C 91 % 1022,4 hPa 0,0 l/m 3,4 km/h (1 Bft) O-SO 119 0 min 0 W/m 12,9 C 14,4 C 8,0 km/h (2 Bft)
26.09.2017 00:24 14,4 C 91 % 1022,4 hPa 0,0 l/m 3,5 km/h (1 Bft) O-NO 74 0 min 0 W/m 12,9 C 14,4 C 17,7 km/h (3 Bft)
26.09.2017 00:27 14,4 C 91 % 1022,4 hPa 0,0 l/m 2,2 km/h (1 Bft) O-SO 105 0 min 0 W/m 12,9 C 14,4 C 11,3 km/h (2 Bft)
26.09.2017 00:30 14,3 C 91 % 1022,4 hPa 0,0 l/m 2,5 km/h (1 Bft) O-SO 108 0 min 0 W/m 12,8 C 14,3 C 11,3 km/h (2 Bft)
26.09.2017 00:33 14,3 C 91 % 1022,4 hPa 0,0 l/m 3,4 km/h (1 Bft) SO 126 0 min 0 W/m 12,8 C 14,3 C 14,5 km/h (3 Bft)
26.09.2017 00:36 14,3 C 91 % 1022,3 hPa 0,0 l/m 2,6 km/h (1 Bft) O-SO 117 0 min 0 W/m 12,8 C 14,3 C 6,4 km/h (2 Bft)
26.09.2017 00:39 14,3 C 91 % 1022,3 hPa 0,0 l/m 3,0 km/h (1 Bft) O 96 0 min 0 W/m 12,8 C 14,3 C 6,4 km/h (2 Bft)
26.09.2017 00:42 14,3 C 91 % 1022,3 hPa 0,0 l/m 2,6 km/h (1 Bft) N-NO 22 0 min 0 W/m 12,8 C 14,3 C 8,0 km/h (2 Bft)
26.09.2017 00:45 14,2 C 92 % 1022,3 hPa 0,0 l/m 3,7 km/h (1 Bft) N 355 0 min 0 W/m 12,9 C 14,2 C 8,0 km/h (2 Bft)
26.09.2017 00:48 14,2 C 92 % 1022,3 hPa 0,0 l/m 3,2 km/h (1 Bft) N-NO 30 0 min 0 W/m 12,9 C 14,2 C 8,0 km/h (2 Bft)
26.09.2017 00:51 14,2 C 92 % 1022,3 hPa 0,0 l/m 3,0 km/h (1 Bft) O-SO 121 0 min 0 W/m 12,9 C 14,2 C 8,0 km/h (2 Bft)
26.09.2017 00:54 14,2 C 92 % 1022,3 hPa 0,0 l/m 3,2 km/h (1 Bft) S-SO 150 0 min 0 W/m 12,9 C 14,2 C 9,7 km/h (2 Bft)
26.09.2017 00:57 14,2 C 92 % 1022,2 hPa 0,0 l/m 3,1 km/h (1 Bft) O-NO 67 0 min 0 W/m 12,9 C 14,2 C 11,3 km/h (2 Bft)
26.09.2017 01:00 14,2 C 92 % 1022,2 hPa 0,0 l/m 2,6 km/h (1 Bft) O-NO 64 0 min 0 W/m 12,9 C 14,2 C 9,7 km/h (2 Bft)
26.09.2017 01:03 14,1 C 92 % 1022,2 hPa 0,0 l/m 3,6 km/h (1 Bft) O-NO 76 0 min 0 W/m 12,8 C 14,1 C 9,7 km/h (2 Bft)
26.09.2017 01:06 14,1 C 91 % 1022,2 hPa 0,0 l/m 4,3 km/h (1 Bft) O-SO 108 0 min 0 W/m 12,7 C 14,1 C 11,3 km/h (2 Bft)
26.09.2017 01:09 14,1 C 91 % 1022,2 hPa 0,0 l/m 1,8 km/h (1 Bft) O 96 0 min 0 W/m 12,7 C 14,1 C 4,8 km/h (1 Bft)
26.09.2017 01:12 14,0 C 91 % 1022,2 hPa 0,0 l/m 2,9 km/h (1 Bft) O 89 0 min 0 W/m 12,6 C 14,0 C 9,7 km/h (2 Bft)
26.09.2017 01:15 13,9 C 91 % 1022,3 hPa 0,0 l/m 4,5 km/h (1 Bft) NO 53 0 min 0 W/m 12,5 C 13,9 C 12,9 km/h (3 Bft)
26.09.2017 01:18 13,9 C 91 % 1022,2 hPa 0,0 l/m 3,4 km/h (1 Bft) O 86 0 min 0 W/m 12,5 C 13,9 C 14,5 km/h (3 Bft)
26.09.2017 01:21 13,9 C 92 % 1022,2 hPa 0,0 l/m 2,1 km/h (1 Bft) N-NO 26 0 min 0 W/m 12,6 C 13,9 C 4,8 km/h (1 Bft)
26.09.2017 01:24 13,9 C 92 % 1022,2 hPa 0,0 l/m 3,6 km/h (1 Bft) O-NO 76 0 min 0 W/m 12,6 C 13,9 C 14,5 km/h (3 Bft)
26.09.2017 01:27 13,8 C 92 % 1022,3 hPa 0,0 l/m 3,8 km/h (1 Bft) S-SO 163 0 min 0 W/m 12,5 C 13,8 C 9,7 km/h (2 Bft)
26.09.2017 01:30 13,8 C 92 % 1022,2 hPa 0,0 l/m 4,2 km/h (1 Bft) S 183 0 min 0 W/m 12,5 C 13,8 C 11,3 km/h (2 Bft)
26.09.2017 01:33 13,8 C 92 % 1022,2 hPa 0,0 l/m 3,4 km/h (1 Bft) N-NW 336 0 min 0 W/m 12,5 C 13,8 C 9,7 km/h (2 Bft)
26.09.2017 01:36 13,8 C 92 % 1022,2 hPa 0,0 l/m 3,9 km/h (1 Bft) SO 128 0 min 0 W/m 12,5 C 13,8 C 9,7 km/h (2 Bft)
26.09.2017 01:39 13,8 C 92 % 1022,3 hPa 0,0 l/m 3,1 km/h (1 Bft) SO 138 0 min 0 W/m 12,5 C 13,8 C 8,0 km/h (2 Bft)
26.09.2017 01:42 13,8 C 92 % 1022,2 hPa 0,0 l/m 2,4 km/h (1 Bft) NO 50 0 min 0 W/m 12,5 C 13,8 C 6,4 km/h (2 Bft)
26.09.2017 01:45 13,7 C 92 % 1022,3 hPa 0,0 l/m 2,5 km/h (1 Bft) NO 38 0 min 0 W/m 12,4 C 13,7 C 6,4 km/h (2 Bft)
26.09.2017 01:48 13,7 C 92 % 1022,2 hPa 0,0 l/m 2,4 km/h (1 Bft) SW 231 0 min 0 W/m 12,4 C 13,7 C 8,0 km/h (2 Bft)
26.09.2017 01:51 13,7 C 92 % 1022,2 hPa 0,0 l/m 3,6 km/h (1 Bft) S-SO 156 0 min 0 W/m 12,4 C 13,7 C 11,3 km/h (2 Bft)
26.09.2017 01:54 13,7 C 92 % 1022,2 hPa 0,0 l/m 4,5 km/h (1 Bft) O 86 0 min 0 W/m 12,4 C 13,7 C 11,3 km/h (2 Bft)
26.09.2017 01:57 13,7 C 92 % 1022,2 hPa 0,0 l/m 3,9 km/h (1 Bft) O-NO 67 0 min 0 W/m 12,4 C 13,7 C 12,9 km/h (3 Bft)
26.09.2017 02:00 13,7 C 92 % 1022,2 hPa 0,0 l/m 3,2 km/h (1 Bft) NO 34 0 min 0 W/m 12,4 C 13,7 C 8,0 km/h (2 Bft)
26.09.2017 02:03 13,7 C 92 % 1022,2 hPa 0,0 l/m 3,4 km/h (1 Bft) SO 126 0 min 0 W/m 12,4 C 13,7 C 14,5 km/h (3 Bft)
26.09.2017 02:06 13,8 C 92 % 1022,2 hPa 0,0 l/m 4,2 km/h (1 Bft) O 101 0 min 0 W/m 12,5 C 13,8 C 12,9 km/h (3 Bft)
26.09.2017 02:09 13,8 C 92 % 1022,3 hPa 0,0 l/m 4,5 km/h (1 Bft) W-NW 303 0 min 0 W/m 12,5 C 13,8 C 11,3 km/h (2 Bft)
26.09.2017 02:12 13,8 C 93 % 1022,3 hPa 0,0 l/m 3,8 km/h (1 Bft) NO 53 0 min 0 W/m 12,7 C 13,8 C 14,5 km/h (3 Bft)
26.09.2017 02:15 13,8 C 93 % 1022,2 hPa 0,0 l/m 2,2 km/h (1 Bft) O-NO 65 0 min 0 W/m 12,7 C 13,8 C 6,4 km/h (2 Bft)
26.09.2017 02:18 13,8 C 93 % 1022,3 hPa 0,0 l/m 3,6 km/h (1 Bft) O-NO 69 0 min 0 W/m 12,7 C 13,8 C 8,0 km/h (2 Bft)
26.09.2017 02:21 13,9 C 93 % 1022,2 hPa 0,0 l/m 3,2 km/h (1 Bft) S-SO 150 0 min 0 W/m 12,8 C 13,9 C 8,0 km/h (2 Bft)
26.09.2017 02:24 13,9 C 93 % 1022,2 hPa 0,0 l/m 5,2 km/h (1 Bft) O 86 0 min 0 W/m 12,8 C 13,9 C 16,1 km/h (3 Bft)
26.09.2017 02:27 13,9 C 93 % 1022,2 hPa 0,0 l/m 2,6 km/h (1 Bft) O-SO 111 0 min 0 W/m 12,8 C 13,9 C 4,8 km/h (1 Bft)
26.09.2017 02:30 13,9 C 93 % 1022,2 hPa 0,0 l/m 3,4 km/h (1 Bft) NO 55 0 min 0 W/m 12,8 C 13,9 C 11,3 km/h (2 Bft)
26.09.2017 02:33 13,9 C 93 % 1022,2 hPa 0,0 l/m 4,3 km/h (1 Bft) SO 130 0 min 0 W/m 12,8 C 13,9 C 8,0 km/h (2 Bft)
26.09.2017 02:36 13,9 C 93 % 1022,2 hPa 0,0 l/m 3,0 km/h (1 Bft) O-SO 106 0 min 0 W/m 12,8 C 13,9 C 12,9 km/h (3 Bft)
26.09.2017 02:39 13,9 C 93 % 1022,2 hPa 0,0 l/m 5,1 km/h (1 Bft) NO 43 0 min 0 W/m 12,8 C 13,9 C 12,9 km/h (3 Bft)
26.09.2017 02:42 14,0 C 93 % 1022,2 hPa 0,0 l/m 4,3 km/h (1 Bft) NO 51 0 min 0 W/m 12,9 C 14,0 C 8,0 km/h (2 Bft)
26.09.2017 02:45 14,0 C 93 % 1022,2 hPa 0,0 l/m 3,4 km/h (1 Bft) SO 128 0 min 0 W/m 12,9 C 14,0 C 8,0 km/h (2 Bft)
26.09.2017 02:48 14,0 C 93 % 1022,2 hPa 0,0 l/m 5,5 km/h (2 Bft) O-NO 65 0 min 0 W/m 12,9 C 14,0 C 14,5 km/h (3 Bft)
26.09.2017 02:51 14,0 C 93 % 1022,2 hPa 0,0 l/m 4,5 km/h (1 Bft) NO 43 0 min 0 W/m 12,9 C 14,0 C 14,5 km/h (3 Bft)
26.09.2017 02:54 14,0 C 93 % 1022,2 hPa 0,0 l/m 3,0 km/h (1 Bft) O-SO 119 0 min 0 W/m 12,9 C 14,0 C 8,0 km/h (2 Bft)
26.09.2017 02:57 14,1 C 93 % 1022,2 hPa 0,0 l/m 2,9 km/h (1 Bft) NO 40 0 min 0 W/m 13,0 C 14,1 C 8,0 km/h (2 Bft)
26.09.2017 03:00 14,1 C 93 % 1022,2 hPa 0,0 l/m 3,7 km/h (1 Bft) SO 130 0 min 0 W/m 13,0 C 14,1 C 9,7 km/h (2 Bft)
26.09.2017 03:03 14,1 C 93 % 1022,2 hPa 0,0 l/m 3,1 km/h (1 Bft) SO 133 0 min 0 W/m 13,0 C 14,1 C 8,0 km/h (2 Bft)
26.09.2017 03:06 14,1 C 93 % 1022,2 hPa 0,0 l/m 4,5 km/h (1 Bft) O 98 0 min 0 W/m 13,0 C 14,1 C 16,1 km/h (3 Bft)
26.09.2017 03:09 14,1 C 93 % 1022,2 hPa 0,0 l/m 5,8 km/h (2 Bft) N 5 0 min 0 W/m 13,0 C 14,1 C 14,5 km/h (3 Bft)
26.09.2017 03:12 14,1 C 93 % 1022,3 hPa 0,0 l/m 4,3 km/h (1 Bft) S-SO 161 0 min 0 W/m 13,0 C 14,1 C 12,9 km/h (3 Bft)
26.09.2017 03:15 14,1 C 93 % 1022,3 hPa 0,0 l/m 4,0 km/h (1 Bft) NO 34 0 min 0 W/m 13,0 C 14,1 C 11,3 km/h (2 Bft)
26.09.2017 03:18 14,1 C 93 % 1022,2 hPa 0,0 l/m 5,9 km/h (2 Bft) O-NO 78 0 min 0 W/m 13,0 C 14,1 C 14,5 km/h (3 Bft)
26.09.2017 03:21 14,1 C 93 % 1022,2 hPa 0,0 l/m 4,9 km/h (1 Bft) NO 46 0 min 0 W/m 13,0 C 14,1 C 8,0 km/h (2 Bft)
26.09.2017 03:24 14,1 C 93 % 1022,2 hPa 0,0 l/m 4,2 km/h (1 Bft) W-NW 289 0 min 0 W/m 13,0 C 14,1 C 12,9 km/h (3 Bft)
26.09.2017 03:27 14,1 C 93 % 1022,3 hPa 0,0 l/m 4,6 km/h (1 Bft) O 99 0 min 0 W/m 13,0 C 14,1 C 14,5 km/h (3 Bft)
26.09.2017 03:30 14,1 C 93 % 1022,3 hPa 0,0 l/m 2,7 km/h (1 Bft) NO 52 0 min 0 W/m 13,0 C 14,1 C 8,0 km/h (2 Bft)
26.09.2017 03:33 14,1 C 93 % 1022,2 hPa 0,0 l/m 3,7 km/h (1 Bft) O-NO 75 0 min 0 W/m 13,0 C 14,1 C 11,3 km/h (2 Bft)
26.09.2017 03:36 14,1 C 93 % 1022,2 hPa 0,0 l/m 2,4 km/h (1 Bft) SO 124 0 min 0 W/m 13,0 C 14,1 C 6,4 km/h (2 Bft)
26.09.2017 03:39 14,1 C 93 % 1022,3 hPa 0,0 l/m 3,7 km/h (1 Bft) SO 144 0 min 0 W/m 13,0 C 14,1 C 12,9 km/h (3 Bft)
26.09.2017 03:42 14,1 C 93 % 1022,2 hPa 0,0 l/m 6,0 km/h (2 Bft) SW 234 0 min 0 W/m 13,0 C 14,1 C 14,5 km/h (3 Bft)
26.09.2017 03:45 14,1 C 93 % 1022,2 hPa 0,0 l/m 3,9 km/h (1 Bft) NO 54 0 min 0 W/m 13,0 C 14,1 C 11,3 km/h (2 Bft)
26.09.2017 03:48 14,1 C 93 % 1022,2 hPa 0,0 l/m 4,4 km/h (1 Bft) NO 42 0 min 0 W/m 13,0 C 14,1 C 12,9 km/h (3 Bft)
26.09.2017 03:51 14,1 C 93 % 1022,2 hPa 0,0 l/m 2,9 km/h (1 Bft) O-SO 114 0 min 0 W/m 13,0 C 14,1 C 11,3 km/h (2 Bft)
26.09.2017 03:54 14,1 C 93 % 1022,2 hPa 0,0 l/m 3,9 km/h (1 Bft) SO 146 0 min 0 W/m 13,0 C 14,1 C 11,3 km/h (2 Bft)
26.09.2017 03:57 14,1 C 93 % 1022,2 hPa 0,0 l/m 3,5 km/h (1 Bft) NO 38 0 min 0 W/m 13,0 C 14,1 C 9,7 km/h (2 Bft)
26.09.2017 04:00 14,1 C 93 % 1022,2 hPa 0,0 l/m 4,6 km/h (1 Bft) NO 36 0 min 0 W/m 13,0 C 14,1 C 16,1 km/h (3 Bft)
26.09.2017 04:03 14,1 C 93 % 1022,3 hPa 0,0 l/m 3,3 km/h (1 Bft) O 98 0 min 0 W/m 13,0 C 14,1 C 8,0 km/h (2 Bft)
26.09.2017 04:06 14,1 C 93 % 1022,3 hPa 0,0 l/m 3,2 km/h (1 Bft) S-SW 205 0 min 0 W/m 13,0 C 14,1 C 8,0 km/h (2 Bft)
26.09.2017 04:09 14,1 C 93 % 1022,2 hPa 0,0 l/m 3,3 km/h (1 Bft) S-SO 150 0 min 0 W/m 13,0 C 14,1 C 8,0 km/h (2 Bft)
26.09.2017 04:12 14,1 C 93 % 1022,3 hPa 0,0 l/m 3,7 km/h (1 Bft) N 11 0 min 0 W/m 13,0 C 14,1 C 11,3 km/h (2 Bft)
26.09.2017 04:15 14,1 C 93 % 1022,3 hPa 0,0 l/m 6,8 km/h (2 Bft) O 87 0 min 0 W/m 13,0 C 13,9 C 16,1 km/h (3 Bft)
26.09.2017 04:18 14,1 C 93 % 1022,3 hPa 0,0 l/m 4,9 km/h (1 Bft) SO 125 0 min 0 W/m 13,0 C 14,1 C 12,9 km/h (3 Bft)
26.09.2017 04:21 14,1 C 93 % 1022,3 hPa 0,0 l/m 4,1 km/h (1 Bft) NO 42 0 min 0 W/m 13,0 C 14,1 C 14,5 km/h (3 Bft)
26.09.2017 04:24 14,1 C 93 % 1022,4 hPa 0,0 l/m 4,1 km/h (1 Bft) SO 146 0 min 0 W/m 13,0 C 14,1 C 11,3 km/h (2 Bft)
26.09.2017 04:27 14,1 C 93 % 1022,4 hPa 0,0 l/m 4,3 km/h (1 Bft) N 355 0 min 0 W/m 13,0 C 14,1 C 12,9 km/h (3 Bft)
26.09.2017 04:30 14,1 C 93 % 1022,4 hPa 0,0 l/m 5,0 km/h (1 Bft) NO 52 0 min 0 W/m 13,0 C 14,1 C 12,9 km/h (3 Bft)
26.09.2017 04:33 14,1 C 93 % 1022,4 hPa 0,0 l/m 4,6 km/h (1 Bft) N-NO 27 0 min 0 W/m 13,0 C 14,1 C 9,7 km/h (2 Bft)
26.09.2017 04:36 14,1 C 93 % 1022,4 hPa 0,0 l/m 4,1 km/h (1 Bft) O-SO 105 0 min 0 W/m 13,0 C 14,1 C 12,9 km/h (3 Bft)
26.09.2017 04:39 14,1 C 93 % 1022,4 hPa 0,0 l/m 4,4 km/h (1 Bft) O-SO 108 0 min 0 W/m 13,0 C 14,1 C 12,9 km/h (3 Bft)
26.09.2017 04:42 14,1 C 93 % 1022,4 hPa 0,0 l/m 2,5 km/h (1 Bft) O-SO 105 0 min 0 W/m 13,0 C 14,1 C 8,0 km/h (2 Bft)
26.09.2017 04:45 14,1 C 93 % 1022,4 hPa 0,0 l/m 2,8 km/h (1 Bft) S-SO 158 0 min 0 W/m 13,0 C 14,1 C 6,4 km/h (2 Bft)
26.09.2017 04:48 14,1 C 93 % 1022,4 hPa 0,0 l/m 4,4 km/h (1 Bft) SO 130 0 min 0 W/m 13,0 C 14,1 C 11,3 km/h (2 Bft)
26.09.2017 04:51 14,1 C 93 % 1022,5 hPa 0,0 l/m 5,7 km/h (2 Bft) O-SO 120 0 min 0 W/m 13,0 C 14,1 C 14,5 km/h (3 Bft)
26.09.2017 04:54 14,2 C 93 % 1022,5 hPa 0,0 l/m 4,4 km/h (1 Bft) NO 40 0 min 0 W/m 13,1 C 14,2 C 11,3 km/h (2 Bft)
26.09.2017 04:57 14,1 C 93 % 1022,5 hPa 0,0 l/m 5,5 km/h (2 Bft) O-SO 117 0 min 0 W/m 13,0 C 14,1 C 12,9 km/h (3 Bft)
26.09.2017 05:00 14,1 C 93 % 1022,4 hPa 0,0 l/m 5,2 km/h (1 Bft) O 101 0 min 0 W/m 13,0 C 14,1 C 11,3 km/h (2 Bft)
26.09.2017 05:03 14,1 C 93 % 1022,5 hPa 0,0 l/m 6,8 km/h (2 Bft) O-SO 111 0 min 0 W/m 13,0 C 13,9 C 12,9 km/h (3 Bft)
26.09.2017 05:06 14,1 C 93 % 1022,5 hPa 0,0 l/m 5,9 km/h (2 Bft) O 83 0 min 0 W/m 13,0 C 14,1 C 17,7 km/h (3 Bft)
26.09.2017 05:09 14,1 C 93 % 1022,4 hPa 0,0 l/m 4,8 km/h (1 Bft) NO 55 0 min 0 W/m 13,0 C 14,1 C 11,3 km/h (2 Bft)
26.09.2017 05:12 14,1 C 93 % 1022,4 hPa 0,0 l/m 5,6 km/h (2 Bft) O 101 0 min 0 W/m 13,0 C 14,1 C 12,9 km/h (3 Bft)
26.09.2017 05:15 14,1 C 93 % 1022,4 hPa 0,0 l/m 3,5 km/h (1 Bft) N-NO 17 0 min 0 W/m 13,0 C 14,1 C 8,0 km/h (2 Bft)
26.09.2017 05:18 14,1 C 93 % 1022,4 hPa 0,0 l/m 3,2 km/h (1 Bft) O 92 0 min 0 W/m 13,0 C 14,1 C 9,7 km/h (2 Bft)
26.09.2017 05:21 14,1 C 93 % 1022,4 hPa 0,0 l/m 3,4 km/h (1 Bft) O 97 0 min 0 W/m 13,0 C 14,1 C 8,0 km/h (2 Bft)
26.09.2017 05:24 14,1 C 93 % 1022,4 hPa 0,0 l/m 4,2 km/h (1 Bft) O-NO 74 0 min 0 W/m 13,0 C 14,1 C 11,3 km/h (2 Bft)
26.09.2017 05:27 14,1 C 93 % 1022,4 hPa 0,0 l/m 5,6 km/h (2 Bft) SO 133 0 min 0 W/m 13,0 C 14,1 C 14,5 km/h (3 Bft)
26.09.2017 05:30 14,1 C 93 % 1022,4 hPa 0,0 l/m 4,0 km/h (1 Bft) S 181 0 min 0 W/m 13,0 C 14,1 C 14,5 km/h (3 Bft)
26.09.2017 05:33 14,1 C 93 % 1022,5 hPa 0,0 l/m 3,7 km/h (1 Bft) O-SO 116 0 min 0 W/m 13,0 C 14,1 C 8,0 km/h (2 Bft)
26.09.2017 05:36 14,1 C 93 % 1022,4 hPa 0,0 l/m 4,1 km/h (1 Bft) NO 46 0 min 0 W/m 13,0 C 14,1 C 17,7 km/h (3 Bft)
26.09.2017 05:39 14,1 C 93 % 1022,4 hPa 0,0 l/m 1,8 km/h (1 Bft) O-NO 58 0 min 0 W/m 13,0 C 14,1 C 6,4 km/h (2 Bft)
26.09.2017 05:42 14,1 C 93 % 1022,4 hPa 0,0 l/m 2,3 km/h (1 Bft) O-NO 76 0 min 0 W/m 13,0 C 14,1 C 4,8 km/h (1 Bft)
26.09.2017 05:45 14,1 C 93 % 1022,4 hPa 0,0 l/m 2,1 km/h (1 Bft) O-NO 57 0 min 0 W/m 13,0 C 14,1 C 8,0 km/h (2 Bft)
26.09.2017 05:48 14,1 C 93 % 1022,4 hPa 0,0 l/m 4,4 km/h (1 Bft) O-NO 59 0 min 0 W/m 13,0 C 14,1 C 12,9 km/h (3 Bft)
26.09.2017 05:51 14,1 C 93 % 1022,5 hPa 0,0 l/m 3,9 km/h (1 Bft) O-SO 107 0 min 0 W/m 13,0 C 14,1 C 9,7 km/h (2 Bft)
26.09.2017 05:54 14,1 C 93 % 1022,6 hPa 0,0 l/m 3,8 km/h (1 Bft) S-SO 157 0 min 0 W/m 13,0 C 14,1 C 9,7 km/h (2 Bft)
26.09.2017 05:57 14,1 C 93 % 1022,6 hPa 0,0 l/m 3,2 km/h (1 Bft) O-NO 63 0 min 0 W/m 13,0 C 14,1 C 14,5 km/h (3 Bft)
26.09.2017 06:00 14,1 C 93 % 1022,6 hPa 0,0 l/m 4,5 km/h (1 Bft) O-NO 67 0 min 0 W/m 13,0 C 14,1 C 11,3 km/h (2 Bft)
26.09.2017 06:03 14,0 C 93 % 1022,6 hPa 0,0 l/m 5,0 km/h (1 Bft) O-SO 112 0 min 0 W/m 12,9 C 14,0 C 17,7 km/h (3 Bft)
26.09.2017 06:06 14,0 C 93 % 1022,6 hPa 0,0 l/m 3,4 km/h (1 Bft) SO 136 0 min 0 W/m 12,9 C 14,0 C 9,7 km/h (2 Bft)
26.09.2017 06:09 13,9 C 93 % 1022,6 hPa 0,0 l/m 4,5 km/h (1 Bft) N-NO 23 0 min 0 W/m 12,8 C 13,9 C 12,9 km/h (3 Bft)
26.09.2017 06:12 13,9 C 93 % 1022,6 hPa 0,0 l/m 2,6 km/h (1 Bft) O-NO 74 0 min 0 W/m 12,8 C 13,9 C 6,4 km/h (2 Bft)
26.09.2017 06:15 13,9 C 92 % 1022,7 hPa 0,0 l/m 3,3 km/h (1 Bft) O-NO 73 0 min 0 W/m 12,6 C 13,9 C 9,7 km/h (2 Bft)
26.09.2017 06:18 13,9 C 92 % 1022,7 hPa 0,0 l/m 3,5 km/h (1 Bft) O-NO 58 0 min 0 W/m 12,6 C 13,9 C 11,3 km/h (2 Bft)
26.09.2017 06:21 13,9 C 92 % 1022,7 hPa 0,0 l/m 4,9 km/h (1 Bft) S 180 0 min 0 W/m 12,6 C 13,9 C 9,7 km/h (2 Bft)
26.09.2017 06:24 13,9 C 92 % 1022,8 hPa 0,0 l/m 2,4 km/h (1 Bft) N-NO 24 0 min 0 W/m 12,6 C 13,9 C 11,3 km/h (2 Bft)
26.09.2017 06:27 13,9 C 92 % 1022,7 hPa 0,0 l/m 3,8 km/h (1 Bft) NO 47 0 min 0 W/m 12,6 C 13,9 C 9,7 km/h (2 Bft)
26.09.2017 06:30 13,9 C 92 % 1022,7 hPa 0,0 l/m 3,2 km/h (1 Bft) O-NO 66 0 min 0 W/m 12,6 C 13,9 C 6,4 km/h (2 Bft)
26.09.2017 06:33 13,9 C 92 % 1022,8 hPa 0,0 l/m 1,6 km/h (1 Bft) O-NO 62 0 min 0 W/m 12,6 C 13,9 C 4,8 km/h (1 Bft)
26.09.2017 06:36 13,9 C 92 % 1022,8 hPa 0,0 l/m 5,5 km/h (2 Bft) O-SO 117 0 min 0 W/m 12,6 C 13,9 C 14,5 km/h (3 Bft)
26.09.2017 06:39 13,9 C 92 % 1022,8 hPa 0,0 l/m 3,9 km/h (1 Bft) O-SO 114 0 min 0 W/m 12,6 C 13,9 C 8,0 km/h (2 Bft)
26.09.2017 06:42 13,9 C 92 % 1022,7 hPa 0,0 l/m 3,0 km/h (1 Bft) O 100 0 min 0 W/m 12,6 C 13,9 C 8,0 km/h (2 Bft)
26.09.2017 06:45 13,8 C 92 % 1022,8 hPa 0,0 l/m 2,3 km/h (1 Bft) O-NO 76 0 min 0 W/m 12,5 C 13,8 C 6,4 km/h (2 Bft)
26.09.2017 06:48 13,8 C 92 % 1022,8 hPa 0,0 l/m 2,9 km/h (1 Bft) O-SO 106 0 min 0 W/m 12,5 C 13,8 C 8,0 km/h (2 Bft)
26.09.2017 06:51 13,8 C 92 % 1022,8 hPa 0,0 l/m 4,2 km/h (1 Bft) O-NO 65 0 min 0 W/m 12,5 C 13,8 C 12,9 km/h (3 Bft)
26.09.2017 06:54 13,8 C 92 % 1022,8 hPa 0,0 l/m 3,0 km/h (1 Bft) O-NO 78 0 min 0 W/m 12,5 C 13,8 C 9,7 km/h (2 Bft)
26.09.2017 06:57 13,8 C 92 % 1022,8 hPa 0,0 l/m 3,0 km/h (1 Bft) O 94 0 min 0 W/m 12,5 C 13,8 C 6,4 km/h (2 Bft)
26.09.2017 07:00 13,8 C 93 % 1022,7 hPa 0,0 l/m 3,1 km/h (1 Bft) O-NO 72 0 min 0 W/m 12,7 C 13,8 C 11,3 km/h (2 Bft)
26.09.2017 07:03 13,9 C 93 % 1022,7 hPa 0,0 l/m 3,2 km/h (1 Bft) O 101 0 min 0 W/m 12,8 C 13,9 C 8,0 km/h (2 Bft)
26.09.2017 07:06 13,9 C 93 % 1022,7 hPa 0,0 l/m 5,2 km/h (1 Bft) O 94 0 min 0 W/m 12,8 C 13,9 C 12,9 km/h (3 Bft)
26.09.2017 07:09 13,9 C 93 % 1022,8 hPa 0,0 l/m 4,4 km/h (1 Bft) O 92 0 min 0 W/m 12,8 C 13,9 C 14,5 km/h (3 Bft)
26.09.2017 07:12 13,9 C 93 % 1022,8 hPa 0,0 l/m 3,0 km/h (1 Bft) O-NO 78 0 min 0 W/m 12,8 C 13,9 C 6,4 km/h (2 Bft)
26.09.2017 07:15 13,9 C 93 % 1022,8 hPa 0,0 l/m 3,4 km/h (1 Bft) O-NO 59 0 min 0 W/m 12,8 C 13,9 C 9,7 km/h (2 Bft)
26.09.2017 07:18 13,9 C 93 % 1022,8 hPa 0,0 l/m 5,1 km/h (1 Bft) O-NO 65 0 min 0 W/m 12,8 C 13,9 C 11,3 km/h (2 Bft)
26.09.2017 07:21 13,8 C 93 % 1022,7 hPa 0,0 l/m 5,1 km/h (1 Bft) S-SW 213 0 min 0 W/m 12,7 C 13,8 C 14,5 km/h (3 Bft)
26.09.2017 07:24 13,8 C 93 % 1022,7 hPa 0,0 l/m 4,5 km/h (1 Bft) O-NO 66 0 min 0 W/m 12,7 C 13,8 C 11,3 km/h (2 Bft)
26.09.2017 07:27 13,8 C 93 % 1022,7 hPa 0,0 l/m 3,3 km/h (1 Bft) O 92 0 min 0 W/m 12,7 C 13,8 C 8,0 km/h (2 Bft)
26.09.2017 07:30 13,8 C 92 % 1022,7 hPa 0,0 l/m 2,8 km/h (1 Bft) O-NO 66 0 min 5 W/m 12,5 C 13,8 C 8,0 km/h (2 Bft)
26.09.2017 07:33 13,8 C 92 % 1022,7 hPa 0,0 l/m 3,5 km/h (1 Bft) N-NO 17 0 min 5 W/m 12,5 C 13,8 C 9,7 km/h (2 Bft)
26.09.2017 07:36 13,8 C 92 % 1022,7 hPa 0,0 l/m 2,1 km/h (1 Bft) O-SO 112 0 min 7 W/m 12,5 C 13,8 C 6,4 km/h (2 Bft)
26.09.2017 07:39 13,7 C 92 % 1022,8 hPa 0,0 l/m 3,9 km/h (1 Bft) NO 49 0 min 7 W/m 12,4 C 13,7 C 12,9 km/h (3 Bft)
26.09.2017 07:42 13,7 C 92 % 1022,9 hPa 0,0 l/m 3,4 km/h (1 Bft) S-SW 202 0 min 9 W/m 12,4 C 13,7 C 8,0 km/h (2 Bft)
26.09.2017 07:45 13,7 C 92 % 1022,8 hPa 0,0 l/m 4,1 km/h (1 Bft) O-NO 67 0 min 11 W/m 12,4 C 13,7 C 11,3 km/h (2 Bft)
26.09.2017 07:48 13,7 C 92 % 1022,9 hPa 0,0 l/m 4,1 km/h (1 Bft) NO 45 0 min 12 W/m 12,4 C 13,7 C 9,7 km/h (2 Bft)
26.09.2017 07:51 13,7 C 92 % 1023,0 hPa 0,0 l/m 3,8 km/h (1 Bft) O 82 0 min 14 W/m 12,4 C 13,7 C 11,3 km/h (2 Bft)
26.09.2017 07:54 13,7 C 93 % 1023,0 hPa 0,0 l/m 3,6 km/h (1 Bft) O-NO 68 0 min 16 W/m 12,6 C 13,7 C 6,4 km/h (2 Bft)
26.09.2017 07:57 13,7 C 93 % 1023,0 hPa 0,0 l/m 3,5 km/h (1 Bft) O-SO 104 0 min 16 W/m 12,6 C 13,7 C 8,0 km/h (2 Bft)
26.09.2017 08:00 13,7 C 93 % 1023,0 hPa 0,0 l/m 2,2 km/h (1 Bft) O-NO 59 0 min 16 W/m 12,6 C 13,7 C 6,4 km/h (2 Bft)
26.09.2017 08:03 13,7 C 93 % 1023,1 hPa 0,0 l/m 2,4 km/h (1 Bft) SO 139 0 min 14 W/m 12,6 C 13,7 C 6,4 km/h (2 Bft)
26.09.2017 08:06 13,7 C 93 % 1023,2 hPa 0,0 l/m 3,1 km/h (1 Bft) SO 130 0 min 12 W/m 12,6 C 13,7 C 12,9 km/h (3 Bft)
26.09.2017 08:09 13,7 C 93 % 1023,3 hPa 0,0 l/m 3,2 km/h (1 Bft) O-NO 71 0 min 14 W/m 12,6 C 13,7 C 11,3 km/h (2 Bft)
26.09.2017 08:12 13,7 C 93 % 1023,2 hPa 0,0 l/m 2,0 km/h (1 Bft) S-SO 150 0 min 11 W/m 12,6 C 13,7 C 4,8 km/h (1 Bft)
26.09.2017 08:15 13,8 C 93 % 1023,3 hPa 0,0 l/m 2,4 km/h (1 Bft) O 90 0 min 11 W/m 12,7 C 13,8 C 4,8 km/h (1 Bft)
26.09.2017 08:18 13,8 C 93 % 1023,3 hPa 0,0 l/m 1,8 km/h (1 Bft) SO 144 0 min 11 W/m 12,7 C 13,8 C 6,4 km/h (2 Bft)
26.09.2017 08:21 13,8 C 93 % 1023,4 hPa 0,0 l/m 1,5 km/h (1 Bft) O 92 0 min 19 W/m 12,7 C 13,8 C 4,8 km/h (1 Bft)
26.09.2017 08:24 13,8 C 93 % 1023,4 hPa 0,0 l/m 3,6 km/h (1 Bft) O-NO 76 0 min 18 W/m 12,7 C 13,8 C 8,0 km/h (2 Bft)
26.09.2017 08:27 13,8 C 93 % 1023,4 hPa 0,0 l/m 2,2 km/h (1 Bft) NO 44 0 min 14 W/m 12,7 C 13,8 C 6,4 km/h (2 Bft)
26.09.2017 08:30 13,9 C 93 % 1023,4 hPa 0,0 l/m 2,7 km/h (1 Bft) N 5 0 min 11 W/m 12,8 C 13,9 C 6,4 km/h (2 Bft)
26.09.2017 08:33 13,9 C 93 % 1023,4 hPa 0,0 l/m 2,8 km/h (1 Bft) NO 40 0 min 9 W/m 12,8 C 13,9 C 6,4 km/h (2 Bft)
26.09.2017 08:36 13,9 C 93 % 1023,4 hPa 0,0 l/m 1,9 km/h (1 Bft) O-NO 65 0 min 11 W/m 12,8 C 13,9 C 6,4 km/h (2 Bft)
26.09.2017 08:39 13,9 C 93 % 1023,4 hPa 0,0 l/m 2,1 km/h (1 Bft) NO 55 0 min 11 W/m 12,8 C 13,9 C 6,4 km/h (2 Bft)
26.09.2017 08:42 13,9 C 93 % 1023,4 hPa 0,0 l/m 2,8 km/h (1 Bft) O 100 0 min 19 W/m 12,8 C 13,9 C 6,4 km/h (2 Bft)
26.09.2017 08:45 13,9 C 93 % 1023,5 hPa 0,0 l/m 2,8 km/h (1 Bft) NO 55 0 min 19 W/m 12,8 C 13,9 C 6,4 km/h (2 Bft)
26.09.2017 08:48 13,9 C 93 % 1023,4 hPa 0,0 l/m 2,2 km/h (1 Bft) N-NO 17 0 min 23 W/m 12,8 C 13,9 C 6,4 km/h (2 Bft)
26.09.2017 08:51 14,0 C 93 % 1023,4 hPa 0,0 l/m 2,7 km/h (1 Bft) N 5 0 min 18 W/m 12,9 C 14,0 C 8,0 km/h (2 Bft)
26.09.2017 08:54 14,0 C 93 % 1023,4 hPa 0,0 l/m 2,9 km/h (1 Bft) SO 126 0 min 23 W/m 12,9 C 14,0 C 6,4 km/h (2 Bft)
26.09.2017 08:57 14,0 C 93 % 1023,5 hPa 0,0 l/m 2,5 km/h (1 Bft) S-SO 147 0 min 26 W/m 12,9 C 14,0 C 9,7 km/h (2 Bft)
26.09.2017 09:00 14,0 C 93 % 1023,4 hPa 0,0 l/m 2,4 km/h (1 Bft) O-NO 57 0 min 26 W/m 12,9 C 14,0 C 8,0 km/h (2 Bft)
26.09.2017 09:03 14,0 C 93 % 1023,4 hPa 0,0 l/m 1,9 km/h (1 Bft) NO 37 0 min 25 W/m 12,9 C 14,0 C 4,8 km/h (1 Bft)
26.09.2017 09:06 14,0 C 93 % 1023,4 hPa 0,0 l/m 3,3 km/h (1 Bft) NO 44 0 min 23 W/m 12,9 C 14,0 C 8,0 km/h (2 Bft)
26.09.2017 09:09 14,1 C 94 % 1023,4 hPa 0,0 l/m 3,5 km/h (1 Bft) NO 36 0 min 21 W/m 13,1 C 14,1 C 9,7 km/h (2 Bft)
26.09.2017 09:12 14,1 C 94 % 1023,4 hPa 0,0 l/m 2,8 km/h (1 Bft) O-SO 123 0 min 30 W/m 13,1 C 14,1 C 11,3 km/h (2 Bft)
26.09.2017 09:15 14,1 C 94 % 1023,4 hPa 0,0 l/m 2,3 km/h (1 Bft) O-NO 59 0 min 32 W/m 13,1 C 14,1 C 6,4 km/h (2 Bft)
26.09.2017 09:18 14,1 C 94 % 1023,5 hPa 0,0 l/m 2,5 km/h (1 Bft) O 88 0 min 42 W/m 13,1 C 14,1 C 11,3 km/h (2 Bft)
26.09.2017 09:21 14,1 C 94 % 1023,4 hPa 0,0 l/m 4,1 km/h (1 Bft) N 355 0 min 46 W/m 13,1 C 14,1 C 16,1 km/h (3 Bft)
26.09.2017 09:24 14,2 C 94 % 1023,5 hPa 0,0 l/m 5,3 km/h (1 Bft) NO 55 0 min 53 W/m 13,2 C 14,2 C 12,9 km/h (3 Bft)
26.09.2017 09:27 14,2 C 94 % 1023,4 hPa 0,0 l/m 4,2 km/h (1 Bft) O-SO 106 0 min 54 W/m 13,2 C 14,2 C 11,3 km/h (2 Bft)
26.09.2017 09:30 14,2 C 94 % 1023,5 hPa 0,0 l/m 4,4 km/h (1 Bft) O 90 0 min 53 W/m 13,2 C 14,2 C 11,3 km/h (2 Bft)
26.09.2017 09:33 14,2 C 94 % 1023,5 hPa 0,0 l/m 4,9 km/h (1 Bft) O 81 0 min 60 W/m 13,2 C 14,2 C 12,9 km/h (3 Bft)
26.09.2017 09:36 14,3 C 94 % 1023,6 hPa 0,0 l/m 5,4 km/h (2 Bft) O-NO 65 0 min 70 W/m 13,3 C 14,3 C 12,9 km/h (3 Bft)
26.09.2017 09:39 14,3 C 94 % 1023,6 hPa 0,0 l/m 5,3 km/h (1 Bft) O 90 0 min 72 W/m 13,3 C 14,3 C 16,1 km/h (3 Bft)
26.09.2017 09:42 14,3 C 94 % 1023,6 hPa 0,0 l/m 4,1 km/h (1 Bft) N 360 0 min 70 W/m 13,3 C 14,3 C 11,3 km/h (2 Bft)
26.09.2017 09:45 14,4 C 94 % 1023,6 hPa 0,0 l/m 3,9 km/h (1 Bft) O 101 0 min 62 W/m 13,4 C 14,4 C 9,7 km/h (2 Bft)
26.09.2017 09:48 14,4 C 94 % 1023,7 hPa 0,0 l/m 3,7 km/h (1 Bft) O-SO 119 0 min 70 W/m 13,4 C 14,4 C 12,9 km/h (3 Bft)
26.09.2017 09:51 14,4 C 94 % 1023,7 hPa 0,0 l/m 5,9 km/h (2 Bft) O 96 0 min 62 W/m 13,4 C 14,4 C 16,1 km/h (3 Bft)
26.09.2017 09:54 14,5 C 94 % 1023,7 hPa 0,0 l/m 3,1 km/h (1 Bft) O-NO 65 0 min 58 W/m 13,5 C 14,5 C 11,3 km/h (2 Bft)
26.09.2017 09:57 14,5 C 94 % 1023,7 hPa 0,0 l/m 4,3 km/h (1 Bft) O-SO 110 0 min 53 W/m 13,5 C 14,5 C 11,3 km/h (2 Bft)
26.09.2017 10:00 14,5 C 94 % 1023,8 hPa 0,0 l/m 4,8 km/h (1 Bft) O-SO 116 0 min 42 W/m 13,5 C 14,5 C 11,3 km/h (2 Bft)
26.09.2017 10:03 14,5 C 94 % 1023,8 hPa 0,0 l/m 2,6 km/h (1 Bft) O-NO 63 0 min 49 W/m 13,5 C 14,5 C 6,4 km/h (2 Bft)
26.09.2017 10:06 14,5 C 94 % 1023,8 hPa 0,0 l/m 1,9 km/h (1 Bft) SO 142 0 min 69 W/m 13,5 C 14,5 C 8,0 km/h (2 Bft)
26.09.2017 10:09 14,6 C 94 % 1023,8 hPa 0,0 l/m 4,4 km/h (1 Bft) N 360 0 min 54 W/m 13,6 C 14,6 C 12,9 km/h (3 Bft)
26.09.2017 10:12 14,6 C 94 % 1023,8 hPa 0,0 l/m 5,1 km/h (1 Bft) SO 139 0 min 56 W/m 13,6 C 14,6 C 12,9 km/h (3 Bft)
26.09.2017 10:15 14,6 C 94 % 1023,8 hPa 0,0 l/m 4,3 km/h (1 Bft) SO 126 0 min 67 W/m 13,6 C 14,6 C 14,5 km/h (3 Bft)
26.09.2017 10:18 14,6 C 94 % 1023,8 hPa 0,0 l/m 3,7 km/h (1 Bft) S-SO 150 0 min 102 W/m 13,6 C 14,6 C 12,9 km/h (3 Bft)
26.09.2017 10:21 14,7 C 94 % 1023,8 hPa 0,0 l/m 3,4 km/h (1 Bft) O-NO 61 0 min 91 W/m 13,7 C 14,7 C 8,0 km/h (2 Bft)
26.09.2017 10:24 14,7 C 94 % 1023,8 hPa 0,0 l/m 4,4 km/h (1 Bft) SO 134 0 min 100 W/m 13,7 C 14,7 C 12,9 km/h (3 Bft)
26.09.2017 10:27 14,7 C 94 % 1023,8 hPa 0,0 l/m 3,1 km/h (1 Bft) S-SW 194 0 min 83 W/m 13,7 C 14,7 C 11,3 km/h (2 Bft)
26.09.2017 10:30 14,8 C 94 % 1023,8 hPa 0,0 l/m 2,9 km/h (1 Bft) O-NO 71 0 min 81 W/m 13,8 C 14,8 C 9,7 km/h (2 Bft)
26.09.2017 10:33 14,8 C 94 % 1023,8 hPa 0,0 l/m 5,0 km/h (1 Bft) N 360 0 min 109 W/m 13,8 C 14,8 C 11,3 km/h (2 Bft)
26.09.2017 10:36 14,8 C 94 % 1023,9 hPa 0,0 l/m 3,5 km/h (1 Bft) O-NO 77 0 min 121 W/m 13,8 C 14,8 C 9,7 km/h (2 Bft)
26.09.2017 10:39 14,8 C 93 % 1023,8 hPa 0,0 l/m 5,5 km/h (2 Bft) O-NO 76 0 min 121 W/m 13,7 C 14,8 C 14,5 km/h (3 Bft)
26.09.2017 10:42 14,9 C 93 % 1023,9 hPa 0,0 l/m 4,4 km/h (1 Bft) O 90 0 min 118 W/m 13,8 C 14,9 C 16,1 km/h (3 Bft)
26.09.2017 10:45 14,9 C 93 % 1023,9 hPa 0,0 l/m 2,9 km/h (1 Bft) NO 42 0 min 77 W/m 13,8 C 14,9 C 9,7 km/h (2 Bft)
26.09.2017 10:48 14,9 C 93 % 1023,9 hPa 0,0 l/m 5,0 km/h (1 Bft) O-NO 67 0 min 83 W/m 13,8 C 14,9 C 11,3 km/h (2 Bft)
26.09.2017 10:51 14,9 C 93 % 1023,9 hPa 0,0 l/m 3,9 km/h (1 Bft) O 79 0 min 49 W/m 13,8 C 14,9 C 11,3 km/h (2 Bft)
26.09.2017 10:54 14,9 C 93 % 1023,9 hPa 0,0 l/m 2,7 km/h (1 Bft) O 92 0 min 56 W/m 13,8 C 14,9 C 8,0 km/h (2 Bft)
26.09.2017 10:57 14,9 C 93 % 1023,9 hPa 0,0 l/m 3,0 km/h (1 Bft) O-NO 64 0 min 62 W/m 13,8 C 14,9 C 8,0 km/h (2 Bft)
26.09.2017 11:00 14,9 C 93 % 1023,9 hPa 0,0 l/m 5,3 km/h (1 Bft) O-SO 102 0 min 98 W/m 13,8 C 14,9 C 16,1 km/h (3 Bft)
26.09.2017 11:03 14,9 C 93 % 1023,8 hPa 0,0 l/m 4,9 km/h (1 Bft) SO 138 0 min 104 W/m 13,8 C 14,9 C 12,9 km/h (3 Bft)
26.09.2017 11:06 14,9 C 93 % 1023,9 hPa 0,0 l/m 6,1 km/h (2 Bft) S-SO 163 0 min 97 W/m 13,8 C 14,9 C 16,1 km/h (3 Bft)
26.09.2017 11:09 14,9 C 93 % 1023,9 hPa 0,0 l/m 4,5 km/h (1 Bft) N-NW 343 0 min 76 W/m 13,8 C 14,9 C 8,0 km/h (2 Bft)
26.09.2017 11:12 14,9 C 93 % 1023,8 hPa 0,0 l/m 4,3 km/h (1 Bft) O-SO 117 0 min 84 W/m 13,8 C 14,9 C 11,3 km/h (2 Bft)
26.09.2017 11:15 15,0 C 93 % 1023,8 hPa 0,0 l/m 3,8 km/h (1 Bft) N 360 0 min 107 W/m 13,9 C 15,0 C 11,3 km/h (2 Bft)
26.09.2017 11:18 15,0 C 93 % 1023,9 hPa 0,0 l/m 3,8 km/h (1 Bft) NO 37 0 min 76 W/m 13,9 C 15,0 C 11,3 km/h (2 Bft)
26.09.2017 11:21 15,1 C 93 % 1023,8 hPa 0,0 l/m 3,9 km/h (1 Bft) NO 51 0 min 102 W/m 14,0 C 15,1 C 16,1 km/h (3 Bft)
26.09.2017 11:24 15,1 C 93 % 1023,8 hPa 0,0 l/m 5,3 km/h (1 Bft) O 92 0 min 128 W/m 14,0 C 15,1 C 19,3 km/h (3 Bft)
26.09.2017 11:27 15,2 C 93 % 1023,8 hPa 0,0 l/m 2,8 km/h (1 Bft) SO 130 0 min 134 W/m 14,1 C 15,2 C 6,4 km/h (2 Bft)
26.09.2017 11:30 15,3 C 93 % 1023,8 hPa 0,0 l/m 4,0 km/h (1 Bft) NO 42 0 min 162 W/m 14,2 C 15,3 C 11,3 km/h (2 Bft)
26.09.2017 11:33 15,3 C 92 % 1023,8 hPa 0,0 l/m 3,6 km/h (1 Bft) SO 145 0 min 148 W/m 14,0 C 15,3 C 12,9 km/h (3 Bft)
26.09.2017 11:36 15,4 C 92 % 1023,9 hPa 0,0 l/m 6,5 km/h (2 Bft) O 95 0 min 127 W/m 14,1 C 15,4 C 12,9 km/h (3 Bft)
26.09.2017 11:39 15,4 C 92 % 1023,9 hPa 0,0 l/m 5,2 km/h (1 Bft) O-NO 77 0 min 132 W/m 14,1 C 15,4 C 14,5 km/h (3 Bft)
26.09.2017 11:42 15,4 C 92 % 1024,0 hPa 0,0 l/m 4,1 km/h (1 Bft) S 181 0 min 148 W/m 14,1 C 15,4 C 9,7 km/h (2 Bft)
26.09.2017 11:45 15,4 C 91 % 1023,9 hPa 0,0 l/m 8,3 km/h (2 Bft) O-SO 113 0 min 156 W/m 13,9 C 14,4 C 17,7 km/h (3 Bft)
26.09.2017 11:48 15,4 C 91 % 1024,0 hPa 0,0 l/m 7,0 km/h (2 Bft) NO 51 0 min 128 W/m 13,9 C 15,1 C 17,7 km/h (3 Bft)
26.09.2017 11:51 15,6 C 91 % 1024,0 hPa 0,0 l/m 2,6 km/h (1 Bft) NO 34 0 min 97 W/m 14,1 C 15,6 C 9,7 km/h (2 Bft)
26.09.2017 11:54 15,6 C 91 % 1024,0 hPa 0,0 l/m 4,7 km/h (1 Bft) O-SO 109 0 min 111 W/m 14,1 C 15,6 C 14,5 km/h (3 Bft)
26.09.2017 11:57 15,6 C 91 % 1024,0 hPa 0,0 l/m 4,5 km/h (1 Bft) O-SO 102 0 min 125 W/m 14,1 C 15,6 C 11,3 km/h (2 Bft)
26.09.2017 12:00 15,6 C 91 % 1023,9 hPa 0,0 l/m 3,8 km/h (1 Bft) O-NO 65 0 min 114 W/m 14,1 C 15,6 C 11,3 km/h (2 Bft)
26.09.2017 12:03 15,6 C 91 % 1024,0 hPa 0,0 l/m 4,5 km/h (1 Bft) O 84 0 min 160 W/m 14,1 C 15,6 C 11,3 km/h (2 Bft)
26.09.2017 12:06 15,7 C 91 % 1024,0 hPa 0,0 l/m 6,1 km/h (2 Bft) O-NO 69 0 min 151 W/m 14,2 C 15,7 C 14,5 km/h (3 Bft)
26.09.2017 12:09 15,7 C 90 % 1024,0 hPa 0,0 l/m 4,4 km/h (1 Bft) O-NO 73 0 min 174 W/m 14,1 C 15,7 C 11,3 km/h (2 Bft)
26.09.2017 12:12 15,8 C 90 % 1023,9 hPa 0,0 l/m 2,0 km/h (1 Bft) O-SO 107 0 min 199 W/m 14,2 C 15,8 C 6,4 km/h (2 Bft)
26.09.2017 12:15 15,9 C 90 % 1023,9 hPa 0,0 l/m 6,2 km/h (2 Bft) NO 53 0 min 167 W/m 14,3 C 15,9 C 12,9 km/h (3 Bft)
26.09.2017 12:18 15,9 C 90 % 1023,9 hPa 0,0 l/m 4,5 km/h (1 Bft) S 184 0 min 156 W/m 14,3 C 15,9 C 11,3 km/h (2 Bft)
26.09.2017 12:21 15,9 C 89 % 1023,9 hPa 0,0 l/m 4,8 km/h (1 Bft) NW 314 0 min 230 W/m 14,1 C 15,9 C 11,3 km/h (2 Bft)
26.09.2017 12:24 15,9 C 89 % 1023,9 hPa 0,0 l/m 6,3 km/h (2 Bft) O-SO 104 0 min 204 W/m 14,1 C 15,9 C 14,5 km/h (3 Bft)
26.09.2017 12:27 16,1 C 89 % 1024,0 hPa 0,0 l/m 3,6 km/h (1 Bft) S 173 0 min 149 W/m 14,3 C 16,1 C 9,7 km/h (2 Bft)
26.09.2017 12:30 16,1 C 89 % 1024,0 hPa 0,0 l/m 4,1 km/h (1 Bft) O 98 0 min 77 W/m 14,3 C 16,1 C 14,5 km/h (3 Bft)
26.09.2017 12:33 16,0 C 89 % 1024,0 hPa 0,0 l/m 5,7 km/h (2 Bft) W 270 0 min 46 W/m 14,2 C 16,0 C 14,5 km/h (3 Bft)
26.09.2017 12:36 15,9 C 89 % 1024,0 hPa 0,0 l/m 6,5 km/h (2 Bft) N-NW 342 0 min 120 W/m 14,1 C 15,9 C 16,1 km/h (3 Bft)
26.09.2017 12:39 15,9 C 89 % 1024,0 hPa 0,0 l/m 4,2 km/h (1 Bft) N-NW 327 0 min 142 W/m 14,1 C 15,9 C 12,9 km/h (3 Bft)
26.09.2017 12:42 15,8 C 89 % 1024,0 hPa 0,0 l/m 5,5 km/h (2 Bft) NW 311 0 min 130 W/m 14,0 C 15,8 C 16,1 km/h (3 Bft)
26.09.2017 12:45 15,8 C 90 % 1024,0 hPa 0,0 l/m 6,8 km/h (2 Bft) N-NO 24 0 min 146 W/m 14,2 C 15,6 C 16,1 km/h (3 Bft)
26.09.2017 12:48 15,8 C 90 % 1024,0 hPa 0,0 l/m 4,5 km/h (1 Bft) O-NO 57 0 min 148 W/m 14,2 C 15,8 C 11,3 km/h (2 Bft)
26.09.2017 12:51 15,8 C 89 % 1024,1 hPa 0,0 l/m 6,0 km/h (2 Bft) NO 44 0 min 111 W/m 14,0 C 15,8 C 17,7 km/h (3 Bft)
26.09.2017 12:54 15,8 C 89 % 1024,1 hPa 0,0 l/m 3,9 km/h (1 Bft) O-SO 112 0 min 95 W/m 14,0 C 15,8 C 17,7 km/h (3 Bft)
26.09.2017 12:57 15,8 C 89 % 1024,1 hPa 0,0 l/m 4,7 km/h (1 Bft) NO 39 0 min 90 W/m 14,0 C 15,8 C 14,5 km/h (3 Bft)
26.09.2017 13:00 15,8 C 89 % 1024,1 hPa 0,0 l/m 5,7 km/h (2 Bft) O-NO 74 0 min 90 W/m 14,0 C 15,8 C 16,1 km/h (3 Bft)
26.09.2017 13:03 15,8 C 90 % 1024,0 hPa 0,0 l/m 4,8 km/h (1 Bft) NO 47 0 min 84 W/m 14,2 C 15,8 C 11,3 km/h (2 Bft)
26.09.2017 13:06 15,8 C 90 % 1024,1 hPa 0,0 l/m 3,2 km/h (1 Bft) O-NO 62 0 min 116 W/m 14,2 C 15,8 C 9,7 km/h (2 Bft)
26.09.2017 13:09 15,8 C 90 % 1024,0 hPa 0,0 l/m 2,8 km/h (1 Bft) O-SO 113 0 min 105 W/m 14,2 C 15,8 C 9,7 km/h (2 Bft)
26.09.2017 13:12 15,8 C 90 % 1024,1 hPa 0,0 l/m 3,8 km/h (1 Bft) S-SW 195 0 min 104 W/m 14,2 C 15,8 C 9,7 km/h (2 Bft)
26.09.2017 13:15 15,8 C 90 % 1024,1 hPa 0,0 l/m 5,7 km/h (2 Bft) N-NO 21 0 min 109 W/m 14,2 C 15,8 C 14,5 km/h (3 Bft)
26.09.2017 13:18 15,8 C 90 % 1024,1 hPa 0,0 l/m 3,8 km/h (1 Bft) O-NO 67 0 min 153 W/m 14,2 C 15,8 C 9,7 km/h (2 Bft)
26.09.2017 13:21 15,8 C 90 % 1024,1 hPa 0,0 l/m 5,8 km/h (2 Bft) O-SO 107 0 min 114 W/m 14,2 C 15,8 C 16,1 km/h (3 Bft)
26.09.2017 13:24 15,8 C 90 % 1024,1 hPa 0,0 l/m 4,2 km/h (1 Bft) S-SO 161 0 min 81 W/m 14,2 C 15,8 C 9,7 km/h (2 Bft)
26.09.2017 13:27 15,8 C 90 % 1024,1 hPa 0,0 l/m 3,2 km/h (1 Bft) O 98 0 min 69 W/m 14,2 C 15,8 C 11,3 km/h (2 Bft)
26.09.2017 13:30 15,8 C 90 % 1024,1 hPa 0,0 l/m 4,1 km/h (1 Bft) NO 41 0 min 72 W/m 14,2 C 15,8 C 16,1 km/h (3 Bft)
26.09.2017 13:33 15,8 C 89 % 1024,1 hPa 0,0 l/m 4,2 km/h (1 Bft) N-NO 17 0 min 91 W/m 14,0 C 15,8 C 11,3 km/h (2 Bft)
26.09.2017 13:36 15,7 C 89 % 1024,0 hPa 0,0 l/m 6,5 km/h (2 Bft) SW 225 0 min 88 W/m 13,9 C 15,7 C 17,7 km/h (3 Bft)
26.09.2017 13:39 15,7 C 89 % 1024,0 hPa 0,0 l/m 6,9 km/h (2 Bft) NO 40 0 min 84 W/m 13,9 C 15,4 C 16,1 km/h (3 Bft)
26.09.2017 13:42 15,7 C 89 % 1023,9 hPa 0,0 l/m 8,4 km/h (2 Bft) O 88 0 min 111 W/m 13,9 C 14,6 C 16,1 km/h (3 Bft)
26.09.2017 13:45 15,6 C 89 % 1024,0 hPa 0,0 l/m 6,5 km/h (2 Bft) O 92 0 min 109 W/m 13,8 C 15,6 C 14,5 km/h (3 Bft)
26.09.2017 13:48 15,6 C 89 % 1024,0 hPa 0,0 l/m 5,6 km/h (2 Bft) O-SO 102 0 min 88 W/m 13,8 C 15,6 C 12,9 km/h (3 Bft)
26.09.2017 13:51 15,7 C 89 % 1024,1 hPa 0,0 l/m 6,7 km/h (2 Bft) N-NW 348 0 min 79 W/m 13,9 C 15,5 C 16,1 km/h (3 Bft)
26.09.2017 13:54 15,7 C 89 % 1024,1 hPa 0,0 l/m 5,1 km/h (1 Bft) NO 39 0 min 111 W/m 13,9 C 15,7 C 16,1 km/h (3 Bft)
26.09.2017 13:57 15,7 C 89 % 1024,1 hPa 0,0 l/m 5,0 km/h (1 Bft) NO 47 0 min 120 W/m 13,9 C 15,7 C 17,7 km/h (3 Bft)
26.09.2017 14:00 15,7 C 89 % 1024,1 hPa 0,0 l/m 4,1 km/h (1 Bft) S-SO 156 0 min 120 W/m 13,9 C 15,7 C 11,3 km/h (2 Bft)
26.09.2017 14:03 15,7 C 89 % 1024,2 hPa 0,0 l/m 4,3 km/h (1 Bft) NO 48 0 min 139 W/m 13,9 C 15,7 C 11,3 km/h (2 Bft)
26.09.2017 14:06 15,8 C 89 % 1024,1 hPa 0,0 l/m 6,4 km/h (2 Bft) SW 224 0 min 158 W/m 14,0 C 15,8 C 16,1 km/h (3 Bft)
26.09.2017 14:09 15,8 C 89 % 1024,1 hPa 0,0 l/m 4,9 km/h (1 Bft) O-SO 103 0 min 123 W/m 14,0 C 15,8 C 12,9 km/h (3 Bft)
26.09.2017 14:12 15,8 C 88 % 1024,1 hPa 0,0 l/m 4,4 km/h (1 Bft) O-NO 76 0 min 98 W/m 13,8 C 15,8 C 12,9 km/h (3 Bft)
26.09.2017 14:15 15,8 C 88 % 1024,1 hPa 0,0 l/m 6,3 km/h (2 Bft) O-NO 61 0 min 105 W/m 13,8 C 15,8 C 16,1 km/h (3 Bft)
26.09.2017 14:18 15,8 C 88 % 1024,1 hPa 0,0 l/m 4,6 km/h (1 Bft) SO 143 0 min 125 W/m 13,8 C 15,8 C 17,7 km/h (3 Bft)
26.09.2017 14:21 15,8 C 88 % 1024,1 hPa 0,0 l/m 4,4 km/h (1 Bft) O-NO 76 0 min 74 W/m 13,8 C 15,8 C 11,3 km/h (2 Bft)
26.09.2017 14:24 15,9 C 88 % 1024,1 hPa 0,0 l/m 4,2 km/h (1 Bft) N 5 0 min 79 W/m 13,9 C 15,9 C 12,9 km/h (3 Bft)
26.09.2017 14:27 15,8 C 88 % 1024,2 hPa 0,0 l/m 4,1 km/h (1 Bft) NO 36 0 min 105 W/m 13,8 C 15,8 C 11,3 km/h (2 Bft)
26.09.2017 14:30 15,8 C 88 % 1024,1 hPa 0,0 l/m 5,3 km/h (1 Bft) N-NO 32 0 min 113 W/m 13,8 C 15,8 C 17,7 km/h (3 Bft)
26.09.2017 14:33 15,9 C 88 % 1024,1 hPa 0,0 l/m 4,6 km/h (1 Bft) O 81 0 min 142 W/m 13,9 C 15,9 C 12,9 km/h (3 Bft)
26.09.2017 14:36 15,9 C 88 % 1024,1 hPa 0,0 l/m 4,7 km/h (1 Bft) O-SO 102 0 min 134 W/m 13,9 C 15,9 C 8,0 km/h (2 Bft)
26.09.2017 14:39 15,9 C 88 % 1024,1 hPa 0,0 l/m 6,1 km/h (2 Bft) SO 141 0 min 107 W/m 13,9 C 15,9 C 16,1 km/h (3 Bft)
26.09.2017 14:42 15,9 C 88 % 1024,0 hPa 0,0 l/m 5,7 km/h (2 Bft) O-NO 77 0 min 113 W/m 13,9 C 15,9 C 14,5 km/h (3 Bft)
26.09.2017 14:45 15,9 C 88 % 1024,0 hPa 0,0 l/m 4,0 km/h (1 Bft) SO 144 0 min 116 W/m 13,9 C 15,9 C 14,5 km/h (3 Bft)
26.09.2017 14:48 15,9 C 88 % 1024,0 hPa 0,0 l/m 5,2 km/h (1 Bft) NO 50 0 min 76 W/m 13,9 C 15,9 C 11,3 km/h (2 Bft)
26.09.2017 14:51 16,0 C 87 % 1024,0 hPa 0,0 l/m 3,2 km/h (1 Bft) O-NO 57 0 min 111 W/m 13,8 C 16,0 C 8,0 km/h (2 Bft)
26.09.2017 14:54 15,9 C 87 % 1024,0 hPa 0,0 l/m 3,7 km/h (1 Bft) O-SO 111 0 min 83 W/m 13,7 C 15,9 C 11,3 km/h (2 Bft)
26.09.2017 14:57 16,0 C 87 % 1024,0 hPa 0,0 l/m 4,7 km/h (1 Bft) O-SO 121 0 min 84 W/m 13,8 C 16,0 C 12,9 km/h (3 Bft)
26.09.2017 15:00 15,9 C 87 % 1024,1 hPa 0,0 l/m 4,5 km/h (1 Bft) NO 36 0 min 88 W/m 13,7 C 15,9 C 11,3 km/h (2 Bft)
26.09.2017 15:03 15,9 C 87 % 1024,1 hPa 0,0 l/m 5,5 km/h (2 Bft) O-SO 112 0 min 104 W/m 13,7 C 15,9 C 12,9 km/h (3 Bft)
26.09.2017 15:06 15,9 C 86 % 1024,0 hPa 0,0 l/m 5,0 km/h (1 Bft) O-NO 71 0 min 102 W/m 13,6 C 15,9 C 11,3 km/h (2 Bft)
26.09.2017 15:09 15,9 C 87 % 1024,1 hPa 0,0 l/m 4,7 km/h (1 Bft) SO 137 0 min 81 W/m 13,7 C 15,9 C 9,7 km/h (2 Bft)
26.09.2017 15:12 15,9 C 86 % 1024,1 hPa 0,0 l/m 4,3 km/h (1 Bft) SO 144 0 min 76 W/m 13,6 C 15,9 C 12,9 km/h (3 Bft)
26.09.2017 15:15 15,9 C 86 % 1024,1 hPa 0,0 l/m 4,9 km/h (1 Bft) NO 52 0 min 90 W/m 13,6 C 15,9 C 16,1 km/h (3 Bft)
26.09.2017 15:18 15,9 C 86 % 1024,1 hPa 0,0 l/m 6,2 km/h (2 Bft) O-NO 63 0 min 72 W/m 13,6 C 15,9 C 14,5 km/h (3 Bft)
26.09.2017 15:21 15,9 C 86 % 1024,0 hPa 0,0 l/m 5,3 km/h (1 Bft) O-SO 113 0 min 69 W/m 13,6 C 15,9 C 12,9 km/h (3 Bft)
26.09.2017 15:24 15,9 C 86 % 1024,1 hPa 0,0 l/m 3,5 km/h (1 Bft) NO 49 0 min 62 W/m 13,6 C 15,9 C 8,0 km/h (2 Bft)
26.09.2017 15:27 15,9 C 86 % 1024,0 hPa 0,0 l/m 3,5 km/h (1 Bft) O-SO 123 0 min 69 W/m 13,6 C 15,9 C 11,3 km/h (2 Bft)
26.09.2017 15:30 15,9 C 86 % 1024,0 hPa 0,0 l/m 2,6 km/h (1 Bft) O-SO 113 0 min 65 W/m 13,6 C 15,9 C 6,4 km/h (2 Bft)
26.09.2017 15:33 15,9 C 87 % 1024,0 hPa 0,0 l/m 3,6 km/h (1 Bft) O-NO 73 0 min 60 W/m 13,7 C 15,9 C 11,3 km/h (2 Bft)
26.09.2017 15:36 15,9 C 87 % 1024,1 hPa 0,0 l/m 3,2 km/h (1 Bft) O-SO 102 0 min 63 W/m 13,7 C 15,9 C 11,3 km/h (2 Bft)
26.09.2017 15:39 15,9 C 87 % 1024,1 hPa 0,0 l/m 1,7 km/h (1 Bft) O 96 0 min 56 W/m 13,7 C 15,9 C 4,8 km/h (1 Bft)
26.09.2017 15:42 15,9 C 87 % 1024,0 hPa 0,0 l/m 2,4 km/h (1 Bft) O 100 0 min 63 W/m 13,7 C 15,9 C 9,7 km/h (2 Bft)
26.09.2017 15:45 15,9 C 87 % 1024,1 hPa 0,0 l/m 1,2 km/h (1 Bft) O 82 0 min 65 W/m 13,7 C 15,9 C 3,2 km/h (1 Bft)
26.09.2017 15:48 15,9 C 87 % 1024,1 hPa 0,0 l/m 2,3 km/h (1 Bft) O-NO 58 0 min 69 W/m 13,7 C 15,9 C 6,4 km/h (2 Bft)
26.09.2017 15:51 15,9 C 87 % 1024,1 hPa 0,0 l/m 2,4 km/h (1 Bft) O 86 0 min 70 W/m 13,7 C 15,9 C 9,7 km/h (2 Bft)
26.09.2017 15:54 15,9 C 87 % 1024,0 hPa 0,0 l/m 2,4 km/h (1 Bft) O 88 0 min 77 W/m 13,7 C 15,9 C 4,8 km/h (1 Bft)
26.09.2017 15:57 15,9 C 87 % 1024,0 hPa 0,0 l/m 3,2 km/h (1 Bft) O-NO 57 0 min 77 W/m 13,7 C 15,9 C 8,0 km/h (2 Bft)
26.09.2017 16:00 15,9 C 88 % 1024,0 hPa 0,0 l/m 1,6 km/h (1 Bft) NO 39 0 min 77 W/m 13,9 C 15,9 C 6,4 km/h (2 Bft)
26.09.2017 16:03 15,9 C 88 % 1024,0 hPa 0,0 l/m 2,1 km/h (1 Bft) O-NO 74 0 min 76 W/m 13,9 C 15,9 C 6,4 km/h (2 Bft)
26.09.2017 16:06 16,0 C 88 % 1024,0 hPa 0,0 l/m 1,4 km/h (1 Bft) NO 53 0 min 70 W/m 14,0 C 16,0 C 4,8 km/h (1 Bft)
26.09.2017 16:09 16,1 C 88 % 1024,0 hPa 0,0 l/m 2,3 km/h (1 Bft) O 98 0 min 65 W/m 14,1 C 16,1 C 4,8 km/h (1 Bft)
26.09.2017 16:12 16,1 C 88 % 1024,1 hPa 0,0 l/m 2,2 km/h (1 Bft) O 90 0 min 56 W/m 14,1 C 16,1 C 4,8 km/h (1 Bft)
26.09.2017 16:15 16,1 C 88 % 1024,1 hPa 0,0 l/m 1,3 km/h (1 Bft) O 90 0 min 47 W/m 14,1 C 16,1 C 3,2 km/h (1 Bft)
26.09.2017 16:18 16,0 C 88 % 1024,1 hPa 0,0 l/m 2,4 km/h (1 Bft) O 93 0 min 53 W/m 14,0 C 16,0 C 8,0 km/h (2 Bft)
26.09.2017 16:21 16,1 C 88 % 1024,1 hPa 0,0 l/m 1,1 km/h (1 Bft) O 79 0 min 58 W/m 14,1 C 16,1 C 4,8 km/h (1 Bft)
26.09.2017 16:24 16,0 C 88 % 1024,0 hPa 0,0 l/m 2,4 km/h (1 Bft) N-NO 27 0 min 54 W/m 14,0 C 16,0 C 4,8 km/h (1 Bft)
26.09.2017 16:27 16,0 C 88 % 1024,0 hPa 0,0 l/m 1,3 km/h (1 Bft) NO 56 0 min 53 W/m 14,0 C 16,0 C 4,8 km/h (1 Bft)
26.09.2017 16:30 16,0 C 88 % 1024,0 hPa 0,0 l/m 1,5 km/h (1 Bft) NO 38 0 min 42 W/m 14,0 C 16,0 C 4,8 km/h (1 Bft)
26.09.2017 16:33 16,0 C 88 % 1024,1 hPa 0,0 l/m 0,7 km/h (0 Bft) NO 38 0 min 49 W/m 14,0 C 16,0 C 3,2 km/h (1 Bft)
26.09.2017 16:36 16,0 C 88 % 1024,1 hPa 0,0 l/m 1,3 km/h (1 Bft) O-NO 59 0 min 42 W/m 14,0 C 16,0 C 4,8 km/h (1 Bft)
26.09.2017 16:39 16,0 C 88 % 1024,2 hPa 0,0 l/m 2,3 km/h (1 Bft) O-NO 59 0 min 37 W/m 14,0 C 16,0 C 3,2 km/h (1 Bft)
26.09.2017 16:42 15,9 C 88 % 1024,2 hPa 0,0 l/m 2,1 km/h (1 Bft) O-SO 117 0 min 32 W/m 13,9 C 15,9 C 4,8 km/h (1 Bft)
26.09.2017 16:45 15,9 C 88 % 1024,1 hPa 0,0 l/m 1,3 km/h (1 Bft) O 96 0 min 42 W/m 13,9 C 15,9 C 3,2 km/h (1 Bft)
26.09.2017 16:48 15,9 C 89 % 1024,1 hPa 0,0 l/m 2,0 km/h (1 Bft) O-NO 57 0 min 33 W/m 14,1 C 15,9 C 6,4 km/h (2 Bft)
26.09.2017 16:51 15,9 C 89 % 1024,1 hPa 0,0 l/m 1,3 km/h (1 Bft) NO 54 0 min 60 W/m 14,1 C 15,9 C 4,8 km/h (1 Bft)
26.09.2017 16:54 15,9 C 89 % 1024,1 hPa 0,0 l/m 1,0 km/h (0 Bft) NO 42 0 min 102 W/m 14,1 C 15,9 C 3,2 km/h (1 Bft)
26.09.2017 16:57 15,9 C 90 % 1024,1 hPa 0,0 l/m 1,6 km/h (1 Bft) NO 54 0 min 141 W/m 14,3 C 15,9 C 4,8 km/h (1 Bft)
26.09.2017 17:00 16,0 C 90 % 1024,1 hPa 0,0 l/m 0,8 km/h (0 Bft) NO 54 0 min 81 W/m 14,4 C 16,0 C 3,2 km/h (1 Bft)
26.09.2017 17:03 16,1 C 90 % 1024,0 hPa 0,0 l/m 2,5 km/h (1 Bft) O 94 0 min 37 W/m 14,5 C 16,1 C 4,8 km/h (1 Bft)
26.09.2017 17:06 16,1 C 89 % 1024,1 hPa 0,0 l/m 2,3 km/h (1 Bft) O-NO 71 0 min 26 W/m 14,3 C 16,1 C 4,8 km/h (1 Bft)
26.09.2017 17:09 16,1 C 89 % 1024,1 hPa 0,0 l/m 1,0 km/h (0 Bft) O-NO 78 0 min 37 W/m 14,3 C 16,1 C 4,8 km/h (1 Bft)
26.09.2017 17:12 16,1 C 89 % 1024,1 hPa 0,0 l/m 1,5 km/h (1 Bft) O 82 0 min 63 W/m 14,3 C 16,1 C 3,2 km/h (1 Bft)
26.09.2017 17:15 16,1 C 90 % 1024,1 hPa 0,0 l/m 1,6 km/h (1 Bft) NO 44 0 min 70 W/m 14,5 C 16,1 C 4,8 km/h (1 Bft)
26.09.2017 17:18 16,2 C 90 % 1024,0 hPa 0,0 l/m 3,1 km/h (1 Bft) N 355 0 min 77 W/m 14,6 C 16,2 C 6,4 km/h (2 Bft)
26.09.2017 17:21 16,2 C 90 % 1024,0 hPa 0,0 l/m 3,0 km/h (1 Bft) NO 44 0 min 91 W/m 14,6 C 16,2 C 8,0 km/h (2 Bft)
26.09.2017 17:24 16,2 C 89 % 1024,1 hPa 0,0 l/m 3,1 km/h (1 Bft) O 82 0 min 109 W/m 14,4 C 16,2 C 8,0 km/h (2 Bft)
26.09.2017 17:27 16,2 C 89 % 1024,0 hPa 0,0 l/m 1,1 km/h (1 Bft) O-NO 74 0 min 102 W/m 14,4 C 16,2 C 3,2 km/h (1 Bft)
26.09.2017 17:30 16,3 C 89 % 1024,0 hPa 0,0 l/m 1,1 km/h (1 Bft) O-NO 67 0 min 107 W/m 14,5 C 16,3 C 3,2 km/h (1 Bft)
26.09.2017 17:33 16,3 C 89 % 1024,0 hPa 0,0 l/m 1,9 km/h (1 Bft) S-SO 157 0 min 88 W/m 14,5 C 16,3 C 6,4 km/h (2 Bft)
26.09.2017 17:36 16,3 C 89 % 1024,0 hPa 0,0 l/m 3,1 km/h (1 Bft) O-SO 114 0 min 63 W/m 14,5 C 16,3 C 6,4 km/h (2 Bft)
26.09.2017 17:39 16,3 C 88 % 1024,0 hPa 0,0 l/m 2,6 km/h (1 Bft) NO 49 0 min 65 W/m 14,3 C 16,3 C 6,4 km/h (2 Bft)
26.09.2017 17:42 16,2 C 88 % 1024,0 hPa 0,0 l/m 2,6 km/h (1 Bft) O-SO 111 0 min 58 W/m 14,2 C 16,2 C 6,4 km/h (2 Bft)
26.09.2017 17:45 16,2 C 88 % 1024,0 hPa 0,0 l/m 2,5 km/h (1 Bft) S-SO 154 0 min 51 W/m 14,2 C 16,2 C 8,0 km/h (2 Bft)
26.09.2017 17:48 16,2 C 88 % 1024,0 hPa 0,0 l/m 2,7 km/h (1 Bft) S-SW 202 0 min 51 W/m 14,2 C 16,2 C 6,4 km/h (2 Bft)
26.09.2017 17:51 16,2 C 88 % 1024,0 hPa 0,0 l/m 2,5 km/h (1 Bft) N-NO 19 0 min 51 W/m 14,2 C 16,2 C 4,8 km/h (1 Bft)
26.09.2017 17:54 16,2 C 88 % 1024,1 hPa 0,0 l/m 2,4 km/h (1 Bft) O 101 0 min 47 W/m 14,2 C 16,2 C 4,8 km/h (1 Bft)
26.09.2017 17:57 16,2 C 88 % 1024,1 hPa 0,0 l/m 3,2 km/h (1 Bft) NO 40 0 min 42 W/m 14,2 C 16,2 C 9,7 km/h (2 Bft)
26.09.2017 18:00 16,2 C 88 % 1024,1 hPa 0,0 l/m 1,7 km/h (1 Bft) O-NO 67 0 min 51 W/m 14,2 C 16,2 C 4,8 km/h (1 Bft)
26.09.2017 18:03 16,2 C 88 % 1024,0 hPa 0,0 l/m 2,9 km/h (1 Bft) O-SO 107 0 min 54 W/m 14,2 C 16,2 C 6,4 km/h (2 Bft)
26.09.2017 18:06 16,1 C 88 % 1024,1 hPa 0,0 l/m 2,6 km/h (1 Bft) O-NO 67 0 min 39 W/m 14,1 C 16,1 C 6,4 km/h (2 Bft)
26.09.2017 18:09 16,1 C 87 % 1024,1 hPa 0,0 l/m 3,6 km/h (1 Bft) O-NO 72 0 min 32 W/m 13,9 C 16,1 C 9,7 km/h (2 Bft)
26.09.2017 18:12 16,1 C 87 % 1024,0 hPa 0,0 l/m 3,1 km/h (1 Bft) O 82 0 min 33 W/m 13,9 C 16,1 C 9,7 km/h (2 Bft)
26.09.2017 18:15 16,1 C 87 % 1024,1 hPa 0,0 l/m 3,0 km/h (1 Bft) O-NO 63 0 min 35 W/m 13,9 C 16,1 C 12,9 km/h (3 Bft)
26.09.2017 18:18 16,0 C 87 % 1024,1 hPa 0,0 l/m 3,1 km/h (1 Bft) O 84 0 min 28 W/m 13,8 C 16,0 C 9,7 km/h (2 Bft)
26.09.2017 18:21 16,0 C 87 % 1024,2 hPa 0,0 l/m 3,1 km/h (1 Bft) O 81 0 min 26 W/m 13,8 C 16,0 C 9,7 km/h (2 Bft)
26.09.2017 18:24 15,9 C 87 % 1024,2 hPa 0,0 l/m 1,6 km/h (1 Bft) N-NO 28 0 min 26 W/m 13,7 C 15,9 C 4,8 km/h (1 Bft)
26.09.2017 18:27 15,9 C 88 % 1024,2 hPa 0,0 l/m 1,7 km/h (1 Bft) O-NO 57 0 min 30 W/m 13,9 C 15,9 C 4,8 km/h (1 Bft)
26.09.2017 18:30 15,9 C 88 % 1024,2 hPa 0,0 l/m 3,0 km/h (1 Bft) NO 44 0 min 35 W/m 13,9 C 15,9 C 9,7 km/h (2 Bft)
26.09.2017 18:33 15,9 C 88 % 1024,2 hPa 0,0 l/m 2,1 km/h (1 Bft) O-NO 77 0 min 33 W/m 13,9 C 15,9 C 4,8 km/h (1 Bft)
26.09.2017 18:36 15,9 C 88 % 1024,2 hPa 0,0 l/m 1,4 km/h (1 Bft) O 86 0 min 28 W/m 13,9 C 15,9 C 4,8 km/h (1 Bft)
26.09.2017 18:39 15,8 C 88 % 1024,2 hPa 0,0 l/m 1,5 km/h (1 Bft) O-SO 111 0 min 28 W/m 13,8 C 15,8 C 4,8 km/h (1 Bft)
26.09.2017 18:42 15,8 C 89 % 1024,2 hPa 0,0 l/m 1,1 km/h (1 Bft) O 90 0 min 30 W/m 14,0 C 15,8 C 4,8 km/h (1 Bft)
26.09.2017 18:45 15,8 C 89 % 1024,2 hPa 0,0 l/m 1,1 km/h (1 Bft) O-NO 74 0 min 28 W/m 14,0 C 15,8 C 3,2 km/h (1 Bft)
26.09.2017 18:48 15,7 C 89 % 1024,2 hPa 0,0 l/m 1,8 km/h (1 Bft) NO 42 0 min 25 W/m 13,9 C 15,7 C 4,8 km/h (1 Bft)
26.09.2017 18:51 15,7 C 89 % 1024,1 hPa 0,0 l/m 1,9 km/h (1 Bft) O-NO 59 0 min 19 W/m 13,9 C 15,7 C 8,0 km/h (2 Bft)
26.09.2017 18:54 15,7 C 89 % 1024,2 hPa 0,0 l/m 1,6 km/h (1 Bft) O-NO 58 0 min 16 W/m 13,9 C 15,7 C 6,4 km/h (2 Bft)
26.09.2017 18:57 15,6 C 90 % 1024,2 hPa 0,0 l/m 1,7 km/h (1 Bft) NO 55 0 min 12 W/m 14,0 C 15,6 C 4,8 km/h (1 Bft)
26.09.2017 19:00 15,6 C 90 % 1024,2 hPa 0,0 l/m 0,2 km/h (0 Bft) NO 49 3 min 11 W/m 14,0 C 15,6 C 1,6 km/h (1 Bft)
26.09.2017 19:03 15,5 C 90 % 1024,3 hPa 0,0 l/m 0,7 km/h (0 Bft) NO 52 0 min 7 W/m 13,9 C 15,5 C 4,8 km/h (1 Bft)
26.09.2017 19:06 15,5 C 90 % 1024,3 hPa 0,0 l/m 1,3 km/h (1 Bft) SO 124 0 min 5 W/m 13,9 C 15,5 C 4,8 km/h (1 Bft)
26.09.2017 19:09 15,4 C 90 % 1024,4 hPa 0,0 l/m 2,1 km/h (1 Bft) O 82 0 min 5 W/m 13,8 C 15,4 C 4,8 km/h (1 Bft)
26.09.2017 19:12 15,4 C 90 % 1024,5 hPa 0,0 l/m 1,7 km/h (1 Bft) O-NO 57 0 min 0 W/m 13,8 C 15,4 C 4,8 km/h (1 Bft)
26.09.2017 19:15 15,4 C 90 % 1024,5 hPa 0,0 l/m 1,6 km/h (1 Bft) NO 49 0 min 0 W/m 13,8 C 15,4 C 3,2 km/h (1 Bft)
26.09.2017 19:18 15,4 C 91 % 1024,6 hPa 0,0 l/m 1,7 km/h (1 Bft) NO 56 0 min 0 W/m 13,9 C 15,4 C 4,8 km/h (1 Bft)
26.09.2017 19:21 15,4 C 91 % 1024,5 hPa 0,0 l/m 2,4 km/h (1 Bft) NO 44 0 min 0 W/m 13,9 C 15,4 C 4,8 km/h (1 Bft)
26.09.2017 19:24 15,3 C 91 % 1024,6 hPa 0,0 l/m 1,2 km/h (1 Bft) NO 48 0 min 0 W/m 13,8 C 15,3 C 4,8 km/h (1 Bft)
26.09.2017 19:27 15,3 C 91 % 1024,6 hPa 0,0 l/m 2,6 km/h (1 Bft) O-NO 61 0 min 0 W/m 13,8 C 15,3 C 4,8 km/h (1 Bft)
26.09.2017 19:30 15,3 C 91 % 1024,7 hPa 0,0 l/m 3,1 km/h (1 Bft) N-NO 24 0 min 0 W/m 13,8 C 15,3 C 8,0 km/h (2 Bft)
26.09.2017 19:33 15,3 C 91 % 1024,7 hPa 0,0 l/m 2,7 km/h (1 Bft) NO 46 0 min 0 W/m 13,8 C 15,3 C 4,8 km/h (1 Bft)
26.09.2017 19:36 15,3 C 91 % 1024,7 hPa 0,0 l/m 2,8 km/h (1 Bft) O-NO 63 0 min 0 W/m 13,8 C 15,3 C 8,0 km/h (2 Bft)
26.09.2017 19:39 15,3 C 91 % 1024,7 hPa 0,0 l/m 4,4 km/h (1 Bft) NO 41 0 min 0 W/m 13,8 C 15,3 C 12,9 km/h (3 Bft)
26.09.2017 19:42 15,3 C 91 % 1024,7 hPa 0,0 l/m 4,3 km/h (1 Bft) O 98 0 min 0 W/m 13,8 C 15,3 C 11,3 km/h (2 Bft)
26.09.2017 19:45 15,3 C 91 % 1024,7 hPa 0,0 l/m 3,3 km/h (1 Bft) O-NO 70 0 min 0 W/m 13,8 C 15,3 C 6,4 km/h (2 Bft)
26.09.2017 19:48 15,3 C 91 % 1024,8 hPa 0,0 l/m 3,5 km/h (1 Bft) O-NO 69 0 min 0 W/m 13,8 C 15,3 C 12,9 km/h (3 Bft)
26.09.2017 19:51 15,4 C 91 % 1024,7 hPa 0,0 l/m 2,8 km/h (1 Bft) O-SO 109 0 min 0 W/m 13,9 C 15,4 C 6,4 km/h (2 Bft)
26.09.2017 19:54 15,3 C 91 % 1024,8 hPa 0,0 l/m 3,5 km/h (1 Bft) SW 236 0 min 0 W/m 13,8 C 15,3 C 9,7 km/h (2 Bft)
26.09.2017 19:57 15,4 C 91 % 1024,8 hPa 0,0 l/m 3,9 km/h (1 Bft) NO 49 0 min 0 W/m 13,9 C 15,4 C 11,3 km/h (2 Bft)
26.09.2017 20:00 15,4 C 92 % 1024,7 hPa 0,0 l/m 2,5 km/h (1 Bft) O-SO 104 0 min 0 W/m 14,1 C 15,4 C 6,4 km/h (2 Bft)
26.09.2017 20:03 15,4 C 91 % 1024,7 hPa 0,0 l/m 5,3 km/h (1 Bft) N 360 0 min 0 W/m 13,9 C 15,4 C 9,7 km/h (2 Bft)
26.09.2017 20:06 15,4 C 91 % 1024,8 hPa 0,0 l/m 4,0 km/h (1 Bft) O-NO 61 0 min 0 W/m 13,9 C 15,4 C 12,9 km/h (3 Bft)
26.09.2017 20:09 15,4 C 91 % 1024,8 hPa 0,0 l/m 3,2 km/h (1 Bft) N-NW 330 0 min 0 W/m 13,9 C 15,4 C 9,7 km/h (2 Bft)
26.09.2017 20:12 15,4 C 91 % 1024,7 hPa 0,0 l/m 3,9 km/h (1 Bft) O-SO 102 0 min 0 W/m 13,9 C 15,4 C 11,3 km/h (2 Bft)
26.09.2017 20:15 15,4 C 91 % 1024,8 hPa 0,0 l/m 2,9 km/h (1 Bft) SO 133 0 min 0 W/m 13,9 C 15,4 C 9,7 km/h (2 Bft)
26.09.2017 20:18 15,4 C 91 % 1024,8 hPa 0,0 l/m 4,1 km/h (1 Bft) O-SO 104 0 min 0 W/m 13,9 C 15,4 C 16,1 km/h (3 Bft)
26.09.2017 20:21 15,3 C 91 % 1024,8 hPa 0,0 l/m 3,9 km/h (1 Bft) O-SO 104 0 min 0 W/m 13,8 C 15,3 C 11,3 km/h (2 Bft)
26.09.2017 20:24 15,3 C 91 % 1024,8 hPa 0,0 l/m 2,7 km/h (1 Bft) SO 126 0 min 0 W/m 13,8 C 15,3 C 8,0 km/h (2 Bft)
26.09.2017 20:27 15,3 C 91 % 1024,9 hPa 0,0 l/m 2,9 km/h (1 Bft) N-NW 335 0 min 0 W/m 13,8 C 15,3 C 6,4 km/h (2 Bft)
26.09.2017 20:30 15,3 C 91 % 1024,9 hPa 0,0 l/m 3,0 km/h (1 Bft) S-SO 147 0 min 0 W/m 13,8 C 15,3 C 11,3 km/h (2 Bft)
26.09.2017 20:33 15,3 C 91 % 1025,0 hPa 0,0 l/m 2,7 km/h (1 Bft) O 101 0 min 0 W/m 13,8 C 15,3 C 9,7 km/h (2 Bft)
26.09.2017 20:36 15,3 C 91 % 1025,0 hPa 0,0 l/m 2,1 km/h (1 Bft) NO 44 0 min 0 W/m 13,8 C 15,3 C 9,7 km/h (2 Bft)
26.09.2017 20:39 15,3 C 91 % 1025,0 hPa 0,0 l/m 3,5 km/h (1 Bft) O 86 0 min 0 W/m 13,8 C 15,3 C 12,9 km/h (3 Bft)
26.09.2017 20:42 15,3 C 91 % 1024,9 hPa 0,0 l/m 4,8 km/h (1 Bft) NO 55 0 min 0 W/m 13,8 C 15,3 C 14,5 km/h (3 Bft)
26.09.2017 20:45 15,3 C 91 % 1024,9 hPa 0,0 l/m 3,2 km/h (1 Bft) NO 42 0 min 0 W/m 13,8 C 15,3 C 8,0 km/h (2 Bft)
26.09.2017 20:48 15,3 C 91 % 1025,0 hPa 0,0 l/m 4,1 km/h (1 Bft) NO 42 0 min 0 W/m 13,8 C 15,3 C 9,7 km/h (2 Bft)
26.09.2017 20:51 15,2 C 91 % 1024,9 hPa 0,0 l/m 4,0 km/h (1 Bft) S-SO 157 0 min 0 W/m 13,7 C 15,2 C 8,0 km/h (2 Bft)
26.09.2017 20:54 15,2 C 91 % 1024,9 hPa 0,0 l/m 3,4 km/h (1 Bft) NO 40 0 min 0 W/m 13,7 C 15,2 C 12,9 km/h (3 Bft)
26.09.2017 20:57 15,2 C 91 % 1024,9 hPa 0,0 l/m 4,7 km/h (1 Bft) NO 46 0 min 0 W/m 13,7 C 15,2 C 8,0 km/h (2 Bft)
26.09.2017 21:00 15,2 C 91 % 1025,0 hPa 0,0 l/m 3,7 km/h (1 Bft) O-NO 68 0 min 0 W/m 13,7 C 15,2 C 14,5 km/h (3 Bft)
26.09.2017 21:03 15,1 C 91 % 1025,0 hPa 0,0 l/m 3,9 km/h (1 Bft) O-NO 63 0 min 0 W/m 13,6 C 15,1 C 8,0 km/h (2 Bft)
26.09.2017 21:06 15,1 C 91 % 1025,0 hPa 0,0 l/m 3,4 km/h (1 Bft) O 91 0 min 0 W/m 13,6 C 15,1 C 6,4 km/h (2 Bft)
26.09.2017 21:09 15,1 C 91 % 1025,1 hPa 0,0 l/m 4,9 km/h (1 Bft) O-SO 109 0 min 0 W/m 13,6 C 15,1 C 12,9 km/h (3 Bft)
26.09.2017 21:12 15,0 C 91 % 1025,2 hPa 0,0 l/m 4,9 km/h (1 Bft) O-NO 69 0 min 0 W/m 13,5 C 15,0 C 14,5 km/h (3 Bft)
26.09.2017 21:15 15,0 C 91 % 1025,1 hPa 0,0 l/m 4,4 km/h (1 Bft) O-NO 57 0 min 0 W/m 13,5 C 15,0 C 12,9 km/h (3 Bft)
26.09.2017 21:18 15,0 C 91 % 1025,1 hPa 0,0 l/m 3,2 km/h (1 Bft) NO 52 0 min 0 W/m 13,5 C 15,0 C 9,7 km/h (2 Bft)
26.09.2017 21:21 14,9 C 92 % 1025,2 hPa 0,0 l/m 5,1 km/h (1 Bft) O-NO 70 0 min 0 W/m 13,6 C 14,9 C 11,3 km/h (2 Bft)
26.09.2017 21:24 14,9 C 92 % 1025,2 hPa 0,0 l/m 4,8 km/h (1 Bft) O-NO 78 0 min 0 W/m 13,6 C 14,9 C 12,9 km/h (3 Bft)
26.09.2017 21:27 14,9 C 92 % 1025,2 hPa 0,0 l/m 3,8 km/h (1 Bft) N 11 0 min 0 W/m 13,6 C 14,9 C 8,0 km/h (2 Bft)
26.09.2017 21:30 14,9 C 92 % 1025,2 hPa 0,0 l/m 4,0 km/h (1 Bft) O-NO 67 0 min 0 W/m 13,6 C 14,9 C 14,5 km/h (3 Bft)
26.09.2017 21:33 14,9 C 92 % 1025,2 hPa 0,0 l/m 5,0 km/h (1 Bft) O-NO 71 0 min 0 W/m 13,6 C 14,9 C 12,9 km/h (3 Bft)
26.09.2017 21:36 14,9 C 92 % 1025,2 hPa 0,0 l/m 2,9 km/h (1 Bft) W 271 0 min 0 W/m 13,6 C 14,9 C 6,4 km/h (2 Bft)
26.09.2017 21:39 14,8 C 92 % 1025,2 hPa 0,0 l/m 2,2 km/h (1 Bft) NO 34 0 min 0 W/m 13,5 C 14,8 C 11,3 km/h (2 Bft)
26.09.2017 21:42 14,8 C 92 % 1025,3 hPa 0,0 l/m 4,0 km/h (1 Bft) SW 217 0 min 0 W/m 13,5 C 14,8 C 8,0 km/h (2 Bft)
26.09.2017 21:45 14,8 C 92 % 1025,3 hPa 0,0 l/m 4,6 km/h (1 Bft) O-NO 73 0 min 0 W/m 13,5 C 14,8 C 12,9 km/h (3 Bft)
26.09.2017 21:48 14,8 C 92 % 1025,2 hPa 0,0 l/m 5,0 km/h (1 Bft) N-NO 17 0 min 0 W/m 13,5 C 14,8 C 12,9 km/h (3 Bft)
26.09.2017 21:51 14,8 C 92 % 1025,3 hPa 0,0 l/m 4,6 km/h (1 Bft) O-NO 74 0 min 0 W/m 13,5 C 14,8 C 16,1 km/h (3 Bft)
26.09.2017 21:54 14,8 C 92 % 1025,2 hPa 0,0 l/m 5,3 km/h (1 Bft) O 89 0 min 0 W/m 13,5 C 14,8 C 12,9 km/h (3 Bft)
26.09.2017 21:57 14,8 C 92 % 1025,2 hPa 0,0 l/m 3,8 km/h (1 Bft) O-SO 103 0 min 0 W/m 13,5 C 14,8 C 12,9 km/h (3 Bft)
26.09.2017 22:00 14,8 C 92 % 1025,2 hPa 0,0 l/m 6,9 km/h (2 Bft) O-NO 78 0 min 0 W/m 13,5 C 14,5 C 16,1 km/h (3 Bft)
26.09.2017 22:03 14,9 C 92 % 1025,2 hPa 0,0 l/m 4,2 km/h (1 Bft) O-NO 65 0 min 0 W/m 13,6 C 14,9 C 9,7 km/h (2 Bft)
26.09.2017 22:06 14,8 C 92 % 1025,1 hPa 0,0 l/m 4,8 km/h (1 Bft) SO 130 0 min 0 W/m 13,5 C 14,8 C 14,5 km/h (3 Bft)
26.09.2017 22:09 14,8 C 92 % 1025,1 hPa 0,0 l/m 5,1 km/h (1 Bft) SW 217 0 min 0 W/m 13,5 C 14,8 C 14,5 km/h (3 Bft)
26.09.2017 22:12 14,8 C 92 % 1025,1 hPa 0,0 l/m 4,0 km/h (1 Bft) NO 46 0 min 0 W/m 13,5 C 14,8 C 14,5 km/h (3 Bft)
26.09.2017 22:15 14,8 C 92 % 1025,1 hPa 0,0 l/m 4,2 km/h (1 Bft) SO 126 0 min 0 W/m 13,5 C 14,8 C 11,3 km/h (2 Bft)
26.09.2017 22:18 14,8 C 92 % 1025,2 hPa 0,0 l/m 4,0 km/h (1 Bft) NO 43 0 min 0 W/m 13,5 C 14,8 C 11,3 km/h (2 Bft)
26.09.2017 22:21 14,8 C 92 % 1025,1 hPa 0,0 l/m 4,8 km/h (1 Bft) O-SO 102 0 min 0 W/m 13,5 C 14,8 C 11,3 km/h (2 Bft)
26.09.2017 22:24 14,8 C 92 % 1025,2 hPa 0,0 l/m 3,7 km/h (1 Bft) O 84 0 min 0 W/m 13,5 C 14,8 C 11,3 km/h (2 Bft)
26.09.2017 22:27 14,8 C 92 % 1025,2 hPa 0,0 l/m 4,1 km/h (1 Bft) O 98 0 min 0 W/m 13,5 C 14,8 C 9,7 km/h (2 Bft)
26.09.2017 22:30 14,8 C 92 % 1025,1 hPa 0,0 l/m 4,8 km/h (1 Bft) O 81 0 min 0 W/m 13,5 C 14,8 C 12,9 km/h (3 Bft)
26.09.2017 22:33 14,8 C 92 % 1025,1 hPa 0,0 l/m 3,9 km/h (1 Bft) W-NW 300 0 min 0 W/m 13,5 C 14,8 C 9,7 km/h (2 Bft)
26.09.2017 22:36 14,8 C 92 % 1025,1 hPa 0,0 l/m 4,9 km/h (1 Bft) N 9 0 min 0 W/m 13,5 C 14,8 C 11,3 km/h (2 Bft)
26.09.2017 22:39 14,8 C 92 % 1025,0 hPa 0,0 l/m 3,3 km/h (1 Bft) NO 52 0 min 0 W/m 13,5 C 14,8 C 9,7 km/h (2 Bft)
26.09.2017 22:42 14,8 C 92 % 1025,1 hPa 0,0 l/m 2,6 km/h (1 Bft) O-NO 69 0 min 0 W/m 13,5 C 14,8 C 8,0 km/h (2 Bft)
26.09.2017 22:45 14,8 C 92 % 1025,1 hPa 0,0 l/m 3,5 km/h (1 Bft) NO 37 0 min 0 W/m 13,5 C 14,8 C 6,4 km/h (2 Bft)
26.09.2017 22:48 14,7 C 92 % 1025,0 hPa 0,0 l/m 5,0 km/h (1 Bft) O-NO 71 0 min 0 W/m 13,4 C 14,7 C 14,5 km/h (3 Bft)
26.09.2017 22:51 14,7 C 92 % 1025,1 hPa 0,0 l/m 3,7 km/h (1 Bft) O-NO 72 0 min 0 W/m 13,4 C 14,7 C 9,7 km/h (2 Bft)
26.09.2017 22:54 14,7 C 92 % 1025,0 hPa 0,0 l/m 4,0 km/h (1 Bft) NO 47 0 min 0 W/m 13,4 C 14,7 C 8,0 km/h (2 Bft)
26.09.2017 22:57 14,7 C 92 % 1025,0 hPa 0,0 l/m 5,8 km/h (2 Bft) O 88 0 min 0 W/m 13,4 C 14,7 C 14,5 km/h (3 Bft)
26.09.2017 23:00 14,6 C 92 % 1025,1 hPa 0,0 l/m 4,8 km/h (1 Bft) S 188 0 min 0 W/m 13,3 C 14,6 C 11,3 km/h (2 Bft)
26.09.2017 23:03 14,6 C 92 % 1025,1 hPa 0,0 l/m 3,6 km/h (1 Bft) SO 138 0 min 0 W/m 13,3 C 14,6 C 14,5 km/h (3 Bft)
26.09.2017 23:06 14,6 C 92 % 1025,1 hPa 0,0 l/m 3,7 km/h (1 Bft) O-SO 111 0 min 0 W/m 13,3 C 14,6 C 9,7 km/h (2 Bft)
26.09.2017 23:09 14,6 C 92 % 1025,2 hPa 0,0 l/m 3,5 km/h (1 Bft) SO 138 0 min 0 W/m 13,3 C 14,6 C 11,3 km/h (2 Bft)
26.09.2017 23:12 14,6 C 92 % 1025,2 hPa 0,0 l/m 3,5 km/h (1 Bft) NO 51 0 min 0 W/m 13,3 C 14,6 C 6,4 km/h (2 Bft)
26.09.2017 23:15 14,5 C 92 % 1025,2 hPa 0,0 l/m 4,3 km/h (1 Bft) N 9 0 min 0 W/m 13,2 C 14,5 C 11,3 km/h (2 Bft)
26.09.2017 23:18 14,5 C 92 % 1025,2 hPa 0,0 l/m 3,0 km/h (1 Bft) NO 45 0 min 0 W/m 13,2 C 14,5 C 8,0 km/h (2 Bft)
26.09.2017 23:21 14,5 C 92 % 1025,2 hPa 0,0 l/m 4,4 km/h (1 Bft) O-SO 113 0 min 0 W/m 13,2 C 14,5 C 12,9 km/h (3 Bft)
26.09.2017 23:24 14,5 C 93 % 1025,1 hPa 0,0 l/m 4,0 km/h (1 Bft) NO 43 0 min 0 W/m 13,4 C 14,5 C 12,9 km/h (3 Bft)
26.09.2017 23:27 14,5 C 93 % 1025,1 hPa 0,0 l/m 2,9 km/h (1 Bft) O-NO 69 0 min 0 W/m 13,4 C 14,5 C 11,3 km/h (2 Bft)
26.09.2017 23:30 14,5 C 93 % 1025,1 hPa 0,0 l/m 3,4 km/h (1 Bft) NO 46 0 min 0 W/m 13,4 C 14,5 C 11,3 km/h (2 Bft)
26.09.2017 23:33 14,5 C 93 % 1025,1 hPa 0,0 l/m 3,3 km/h (1 Bft) N-NW 348 0 min 0 W/m 13,4 C 14,5 C 9,7 km/h (2 Bft)
26.09.2017 23:36 14,5 C 93 % 1025,1 hPa 0,0 l/m 3,4 km/h (1 Bft) W 269 0 min 0 W/m 13,4 C 14,5 C 11,3 km/h (2 Bft)
26.09.2017 23:39 14,5 C 93 % 1025,2 hPa 0,0 l/m 4,4 km/h (1 Bft) O-NO 70 0 min 0 W/m 13,4 C 14,5 C 14,5 km/h (3 Bft)
26.09.2017 23:42 14,5 C 93 % 1025,2 hPa 0,0 l/m 4,0 km/h (1 Bft) O 98 0 min 0 W/m 13,4 C 14,5 C 11,3 km/h (2 Bft)
26.09.2017 23:45 14,5 C 93 % 1025,2 hPa 0,0 l/m 3,2 km/h (1 Bft) N-NO 32 0 min 0 W/m 13,4 C 14,5 C 6,4 km/h (2 Bft)
26.09.2017 23:48 14,5 C 93 % 1025,1 hPa 0,0 l/m 3,4 km/h (1 Bft) NO 39 0 min 0 W/m 13,4 C 14,5 C 9,7 km/h (2 Bft)
26.09.2017 23:51 14,5 C 93 % 1025,1 hPa 0,0 l/m 4,0 km/h (1 Bft) O-SO 115 0 min 0 W/m 13,4 C 14,5 C 9,7 km/h (2 Bft)
26.09.2017 23:54 14,4 C 93 % 1025,1 hPa 0,0 l/m 3,7 km/h (1 Bft) NO 46 0 min 0 W/m 13,3 C 14,4 C 11,3 km/h (2 Bft)
26.09.2017 23:57 14,4 C 93 % 1025,2 hPa 0,0 l/m 3,3 km/h (1 Bft) O-NO 69 0 min 0 W/m 13,3 C 14,4 C 9,7 km/h (2 Bft)
_ Min-Zeit 01:42 15:06 00:57 - 19:00 - - - - 01:45 01:45 19:00
Minimum _ 13,7 C 86 % 1022,2 hPa - 0,2 km/h (0 Bft) - - - - 12,4 C 13,7 C 1,6 km/h (1 Bft)
_ Max-Zeit 17:30 09:09 21:42 00:00 13:42 - - 19:00 12:21 17:18 17:30 11:24
Maximum _ 16,3 C 94 % 1025,3 hPa 0,0 l/m 8,4 km/h
O (2 Bft)
- - 3 min 230 W/m 14,6 C 16,3 C 19,3 km/h
SO (3 Bft)
Durchschnitt _ 14,9 C 91 % 1023,6 hPa #0,0 l/m 3,7 km/h (1 Bft) O-NO - #3 min. 72 W/m 13,4 C 14,8 C 10,2 km/h (2 Bft)
2017 Cux-Wetter.de -Die Nutzung der Wetterdaten nur mit ausdrcklicher Genehmigung